| time (UTC) | temp F | wind direction | speed MPH | gust MPH | rain 1hr in | rain 24hr in | rain mn in | humidity % | barometer mb |
| 20260901030440 | 87 | 190 | 2.0 | 0.0 | 0.00 | 0.00 | 0.00 | 72 | 1008.1 |
| 20260901030347 | 87 | 188 | 2.0 | 0.0 | 0.00 | 0.00 | 0.00 | 72 | 1008.1 |
| 20260901030300 | 87 | 182 | 2.0 | 0.0 | 0.00 | 0.00 | 0.00 | 72 | 1008.1 |
| 20260901030202 | 87 | 171 | 2.0 | 0.0 | 0.00 | 0.00 | 0.00 | 72 | 1008.1 |
| 20260901030056 | 87 | 161 | 2.0 | 0.0 | 0.00 | 0.00 | 0.00 | 72 | 1008.1 |
| 20260901025956 | 87 | 209 | 2.0 | 0.0 | 0.00 | 0.00 | 0.00 | 72 | 1008.1 |
| 20260901025848 | 87 | 136 | 2.0 | 0.0 | 0.00 | 0.00 | 0.00 | 72 | 1008.1 |
| 20260901025810 | 87 | 165 | 2.0 | 0.0 | 0.00 | 0.00 | 0.00 | 72 | 1008.1 |
| 20260901025649 | 87 | 191 | 2.0 | 0.0 | 0.00 | 0.00 | 0.00 | 71 | 1008.1 |
| 20260901025605 | 87 | 198 | 2.0 | 0.0 | 0.00 | 0.00 | 0.00 | 71 | 1008.1 |
| 20260901025508 | 87 | 239 | 2.0 | 0.0 | 0.00 | 0.00 | 0.00 | 71 | 1008.1 |
| 20260901025430 | 87 | 284 | 2.0 | 0.0 | 0.00 | 0.00 | 0.00 | 71 | 1008.1 |
| 20260901025331 | 87 | 202 | 2.0 | 0.0 | 0.00 | 0.00 | 0.00 | 71 | 1008.1 |
| 20260901025222 | 87 | 84 | 2.0 | 0.0 | 0.00 | 0.00 | 0.00 | 71 | 1008.1 |
| 20260901025101 | 87 | 221 | 2.0 | 0.0 | 0.00 | 0.00 | 0.00 | 71 | 1008.1 |
| 20260901024952 | 87 | 235 | 2.0 | 0.0 | 0.00 | 0.00 | 0.00 | 71 | 1007.6 |
| 20260901024917 | 87 | 144 | 2.0 | 0.0 | 0.00 | 0.00 | 0.00 | 71 | 1007.6 |
| 20260901024817 | 87 | 101 | 2.0 | 0.0 | 0.00 | 0.00 | 0.00 | 70 | 1007.6 |
| 20260901024646 | 87 | 192 | 2.0 | 0.0 | 0.00 | 0.00 | 0.00 | 70 | 1007.6 |
| 20260901024540 | 87 | 184 | 2.0 | 0.0 | 0.00 | 0.00 | 0.00 | 70 | 1007.6 |
| 20260901024507 | 87 | 231 | 2.0 | 0.0 | 0.00 | 0.00 | 0.00 | 70 | 1007.6 |
| 20260901024422 | 87 | 195 | 2.0 | 0.0 | 0.00 | 0.00 | 0.00 | 70 | 1007.6 |
| 20260901024301 | 87 | 209 | 1.0 | 0.0 | 0.00 | 0.00 | 0.00 | 70 | 1007.6 |
| 20260901024142 | 87 | 247 | 1.0 | 0.0 | 0.00 | 0.00 | 0.00 | 70 | 1007.6 |
| 20260901024100 | 87 | 213 | 1.0 | 0.0 | 0.00 | 0.00 | 0.00 | 70 | 1007.6 |
| 20260901024005 | 87 | 213 | 1.0 | 0.0 | 0.00 | 0.00 | 0.00 | 70 | 1007.6 |
| 20260901023839 | 87 | 205 | 1.0 | 0.0 | 0.00 | 0.00 | 0.00 | 70 | 1007.6 |
| 20260901023753 | 87 | 163 | 1.0 | 0.0 | 0.00 | 0.00 | 0.00 | 70 | 1007.6 |
| 20260901023701 | 87 | 159 | 1.0 | 0.0 | 0.00 | 0.00 | 0.00 | 70 | 1007.6 |
| 20260901023556 | 88 | 202 | 1.0 | 0.0 | 0.00 | 0.00 | 0.00 | 70 | 1007.6 |
| 20260901023446 | 88 | 227 | 1.0 | 0.0 | 0.00 | 0.00 | 0.00 | 69 | 1007.2 |
| 20260901023351 | 88 | 94 | 1.0 | 0.0 | 0.00 | 0.00 | 0.00 | 69 | 1007.2 |
| 20260901023250 | 88 | 206 | 1.0 | 0.0 | 0.00 | 0.00 | 0.00 | 69 | 1007.2 |
| 20260901023143 | 88 | 171 | 1.0 | 0.0 | 0.00 | 0.00 | 0.00 | 69 | 1007.2 |
| 20260901023108 | 88 | 174 | 1.0 | 0.0 | 0.00 | 0.00 | 0.00 | 69 | 1007.2 |
| 20260901023029 | 88 | 205 | 1.0 | 0.0 | 0.00 | 0.00 | 0.00 | 69 | 1007.2 |
| 20260901022921 | 88 | 209 | 2.0 | 0.0 | 0.00 | 0.00 | 0.00 | 69 | 1007.2 |
| 20260901022801 | 88 | 198 | 2.0 | 0.0 | 0.00 | 0.00 | 0.00 | 69 | 1007.2 |
| 20260901022654 | 88 | 165 | 2.0 | 0.0 | 0.00 | 0.00 | 0.00 | 69 | 1007.2 |
| 20260901022545 | 88 | 215 | 2.0 | 0.0 | 0.00 | 0.00 | 0.00 | 69 | 1007.2 |
| 20260901022454 | 88 | 241 | 2.0 | 0.0 | 0.00 | 0.00 | 0.00 | 69 | 1007.2 |
| 20260901022350 | 88 | 119 | 2.0 | 0.0 | 0.00 | 0.00 | 0.00 | 68 | 1007.2 |
| 20260901022312 | 88 | 173 | 2.0 | 0.0 | 0.00 | 0.00 | 0.00 | 68 | 1007.2 |
| 20260901022146 | 88 | 279 | 3.0 | 0.0 | 0.00 | 0.00 | 0.00 | 68 | 1007.2 |
| 20260901022041 | 88 | 350 | 3.0 | 0.0 | 0.00 | 0.00 | 0.00 | 68 | 1006.8 |
| 20260901022009 | 88 | 211 | 3.0 | 0.0 | 0.00 | 0.00 | 0.00 | 68 | 1006.8 |
| 20260901021924 | 88 | 240 | 3.0 | 0.0 | 0.00 | 0.00 | 0.00 | 68 | 1006.8 |
| 20260901021809 | 88 | 231 | 3.0 | 0.0 | 0.00 | 0.00 | 0.00 | 68 | 1006.8 |
| 20260901021704 | 88 | 196 | 3.0 | 0.0 | 0.00 | 0.00 | 0.00 | 68 | 1006.8 |
| 20260901021626 | 88 | 198 | 3.0 | 0.0 | 0.00 | 0.00 | 0.00 | 67 | 1006.8 |
| 20260901021457 | 88 | 238 | 2.0 | 0.0 | 0.00 | 0.00 | 0.00 | 67 | 1006.8 |
| 20260901021400 | 88 | 169 | 2.0 | 0.0 | 0.00 | 0.00 | 0.00 | 67 | 1006.8 |
| 20260901021250 | 89 | 178 | 3.0 | 0.0 | 0.00 | 0.00 | 0.00 | 67 | 1006.8 |
| 20260901021212 | 89 | 218 | 3.0 | 0.0 | 0.00 | 0.00 | 0.00 | 67 | 1006.8 |
| 20260901021050 | 89 | 120 | 3.0 | 0.0 | 0.00 | 0.00 | 0.00 | 67 | 1006.8 |
| 20260901021000 | 89 | 175 | 2.0 | 0.0 | 0.00 | 0.00 | 0.00 | 66 | 1006.8 |
| 20260901020843 | 89 | 157 | 2.0 | 0.0 | 0.00 | 0.00 | 0.00 | 66 | 1006.8 |
| 20260901020757 | 89 | 241 | 2.0 | 0.0 | 0.00 | 0.00 | 0.00 | 66 | 1006.8 |
| 20260901020701 | 89 | 55 | 2.0 | 0.0 | 0.00 | 0.00 | 0.00 | 66 | 1006.8 |
| 20260901020555 | 89 | 260 | 2.0 | 0.0 | 0.00 | 0.00 | 0.00 | 66 | 1006.8 |
| 20260901020447 | 89 | 176 | 2.0 | 0.0 | 0.00 | 0.00 | 0.00 | 66 | 1006.6 |
| 20260901020348 | 89 | 161 | 2.0 | 0.0 | 0.00 | 0.00 | 0.00 | 65 | 1006.6 |
| 20260901020245 | 89 | 178 | 2.0 | 0.0 | 0.00 | 0.00 | 0.00 | 65 | 1006.6 |
| 20260901020210 | 89 | 171 | 2.0 | 0.0 | 0.00 | 0.00 | 0.00 | 65 | 1006.6 |
| 20260901020101 | 89 | 163 | 2.0 | 0.0 | 0.00 | 0.00 | 0.00 | 65 | 1006.6 |
| 20260901020002 | 89 | 161 | 2.0 | 0.0 | 0.00 | 0.00 | 0.00 | 65 | 1006.6 |
| 20260901015854 | 89 | 26 | 2.0 | 0.0 | 0.00 | 0.00 | 0.00 | 64 | 1006.6 |
| 20260901015746 | 89 | 209 | 2.0 | 0.0 | 0.00 | 0.00 | 0.00 | 64 | 1006.6 |
| 20260901015648 | 89 | 251 | 2.0 | 0.0 | 0.00 | 0.00 | 0.00 | 64 | 1006.6 |
| 20260901015604 | 89 | 208 | 2.0 | 0.0 | 0.00 | 0.00 | 0.00 | 64 | 1006.6 |
| 20260901015508 | 89 | 222 | 1.0 | 0.0 | 0.00 | 0.00 | 0.00 | 64 | 1006.6 |
| 20260901015407 | 90 | 208 | 1.0 | 0.0 | 0.00 | 0.00 | 0.00 | 63 | 1006.6 |
| 20260901015322 | 90 | 217 | 1.0 | 0.0 | 0.00 | 0.00 | 0.00 | 63 | 1006.6 |
| 20260901015222 | 90 | 234 | 1.0 | 0.0 | 0.00 | 0.00 | 0.00 | 63 | 1006.6 |
| 20260901015052 | 90 | 159 | 1.0 | 0.0 | 0.00 | 0.00 | 0.00 | 62 | 1006.6 |
| 20260901015014 | 90 | 140 | 1.0 | 0.0 | 0.00 | 0.00 | 0.00 | 62 | 1006.3 |
| 20260901014844 | 90 | 169 | 1.0 | 0.0 | 0.00 | 0.00 | 0.00 | 62 | 1006.3 |
| 20260901014749 | 90 | 168 | 1.0 | 0.0 | 0.00 | 0.00 | 0.00 | 62 | 1006.3 |
| 20260901014644 | 90 | 175 | 1.0 | 0.0 | 0.00 | 0.00 | 0.00 | 62 | 1006.3 |
| 20260901014555 | 90 | 217 | 1.0 | 0.0 | 0.00 | 0.00 | 0.00 | 62 | 1006.3 |
| 20260901014447 | 90 | 168 | 1.0 | 0.0 | 0.00 | 0.00 | 0.00 | 62 | 1006.3 |
| 20260901014407 | 90 | 211 | 1.0 | 0.0 | 0.00 | 0.00 | 0.00 | 62 | 1006.3 |
| 20260901014243 | 90 | 211 | 2.0 | 0.0 | 0.00 | 0.00 | 0.00 | 61 | 1006.3 |
| 20260901014153 | 90 | 197 | 2.0 | 0.0 | 0.00 | 0.00 | 0.00 | 61 | 1006.3 |
| 20260901014053 | 90 | 201 | 2.0 | 0.0 | 0.00 | 0.00 | 0.00 | 61 | 1006.3 |
| 20260901014004 | 90 | 198 | 2.0 | 0.0 | 0.00 | 0.00 | 0.00 | 61 | 1006.3 |
| 20260901013908 | 90 | 233 | 2.0 | 0.0 | 0.00 | 0.00 | 0.00 | 61 | 1006.3 |
| 20260901013800 | 90 | 163 | 2.0 | 0.0 | 0.00 | 0.00 | 0.00 | 60 | 1006.3 |
| 20260901013701 | 90 | 196 | 2.0 | 0.0 | 0.00 | 0.00 | 0.00 | 60 | 1006.3 |
| 20260901013555 | 90 | 105 | 2.0 | 0.0 | 0.00 | 0.00 | 0.00 | 60 | 1006.3 |
| 20260901013456 | 90 | 222 | 2.0 | 0.0 | 0.00 | 0.00 | 0.00 | 60 | 1006.1 |
| 20260901013351 | 90 | 206 | 3.0 | 0.0 | 0.00 | 0.00 | 0.00 | 60 | 1006.1 |
| 20260901013243 | 91 | 44 | 3.0 | 0.0 | 0.00 | 0.00 | 0.00 | 60 | 1006.1 |
| 20260901013208 | 91 | 199 | 2.0 | 0.0 | 0.00 | 0.00 | 0.00 | 59 | 1006.1 |
| 20260901013045 | 91 | 289 | 3.0 | 0.0 | 0.00 | 0.00 | 0.00 | 59 | 1006.1 |
| 20260901012947 | 91 | 122 | 3.0 | 0.0 | 0.00 | 0.00 | 0.00 | 59 | 1006.1 |
| 20260901012852 | 91 | 105 | 3.0 | 0.0 | 0.00 | 0.00 | 0.00 | 59 | 1006.1 |
| 20260901012805 | 91 | 217 | 3.0 | 0.0 | 0.00 | 0.00 | 0.00 | 59 | 1006.1 |
| 20260901012706 | 91 | 256 | 2.0 | 0.0 | 0.00 | 0.00 | 0.00 | 58 | 1006.1 |
| 20260901012558 | 91 | 88 | 3.0 | 0.0 | 0.00 | 0.00 | 0.00 | 58 | 1006.1 |
| 20260901012454 | 91 | 209 | 3.0 | 0.0 | 0.00 | 0.00 | 0.00 | 58 | 1006.1 |
| 20260901012353 | 91 | 171 | 3.0 | 0.0 | 0.00 | 0.00 | 0.00 | 58 | 1006.1 |
| 20260901012248 | 91 | 183 | 3.0 | 0.0 | 0.00 | 0.00 | 0.00 | 58 | 1006.1 |
| 20260901012154 | 91 | 153 | 3.0 | 0.0 | 0.00 | 0.00 | 0.00 | 58 | 1006.1 |
| 20260901012046 | 91 | 192 | 3.0 | 0.0 | 0.00 | 0.00 | 0.00 | 58 | 1006.0 |
| 20260901012011 | 91 | 239 | 3.0 | 0.0 | 0.00 | 0.00 | 0.00 | 58 | 1006.0 |
| 20260901011902 | 91 | 197 | 2.0 | 0.0 | 0.00 | 0.00 | 0.00 | 58 | 1006.0 |
| 20260901011754 | 91 | 147 | 3.0 | 0.0 | 0.00 | 0.00 | 0.00 | 58 | 1006.0 |
| 20260901011657 | 91 | 171 | 3.0 | 0.0 | 0.00 | 0.00 | 0.00 | 58 | 1006.0 |
| 20260901011548 | 91 | 198 | 3.0 | 0.0 | 0.00 | 0.00 | 0.00 | 58 | 1006.0 |
| 20260901011457 | 92 | 150 | 3.0 | 0.0 | 0.00 | 0.00 | 0.00 | 58 | 1006.0 |
| 20260901011349 | 92 | 203 | 3.0 | 0.0 | 0.00 | 0.00 | 0.00 | 58 | 1006.0 |
| 20260901011314 | 92 | 167 | 3.0 | 0.0 | 0.00 | 0.00 | 0.00 | 58 | 1006.0 |
| 20260901011215 | 92 | 97 | 3.0 | 0.0 | 0.00 | 0.00 | 0.00 | 58 | 1006.0 |
| 20260901011105 | 92 | 175 | 3.0 | 0.0 | 0.00 | 0.00 | 0.00 | 58 | 1006.0 |
| 20260901011007 | 92 | 217 | 3.0 | 0.0 | 0.00 | 0.00 | 0.00 | 57 | 1006.0 |
| 20260901010904 | 92 | 193 | 3.0 | 0.0 | 0.00 | 0.00 | 0.00 | 57 | 1006.0 |
| 20260901010805 | 92 | 179 | 3.0 | 0.0 | 0.00 | 0.00 | 0.00 | 57 | 1006.0 |
| 20260901010725 | 92 | 231 | 3.0 | 0.0 | 0.00 | 0.00 | 0.00 | 57 | 1006.0 |
| 20260901010541 | 92 | 157 | 3.0 | 0.0 | 0.00 | 0.00 | 0.00 | 57 | 1005.7 |
| 20260901010456 | 92 | 222 | 3.0 | 0.0 | 0.00 | 0.00 | 0.00 | 57 | 1005.7 |
| 20260901010358 | 92 | 19 | 3.0 | 0.0 | 0.00 | 0.00 | 0.00 | 56 | 1005.7 |
| 20260901010250 | 92 | 205 | 3.0 | 0.0 | 0.00 | 0.00 | 0.00 | 56 | 1005.7 |
| 20260901010145 | 92 | 209 | 3.0 | 0.0 | 0.00 | 0.00 | 0.00 | 56 | 1005.7 |
| 20260901010112 | 93 | 87 | 3.0 | 0.0 | 0.00 | 0.00 | 0.00 | 56 | 1005.7 |
| 20260901005949 | 93 | 142 | 4.0 | 0.0 | 0.00 | 0.00 | 0.00 | 55 | 1005.7 |
| 20260901005850 | 93 | 67 | 4.0 | 0.0 | 0.00 | 0.00 | 0.00 | 55 | 1005.7 |
| 20260901005746 | 93 | 199 | 3.0 | 0.0 | 0.00 | 0.00 | 0.00 | 55 | 1005.7 |
| 20260901005707 | 93 | 201 | 3.0 | 0.0 | 0.00 | 0.00 | 0.00 | 55 | 1005.7 |
| 20260901005558 | 93 | 208 | 3.0 | 0.0 | 0.00 | 0.00 | 0.00 | 54 | 1005.7 |
| 20260901005519 | 93 | 166 | 3.0 | 0.0 | 0.00 | 0.00 | 0.00 | 54 | 1005.7 |
| 20260901005350 | 93 | 151 | 3.0 | 0.0 | 0.00 | 0.00 | 0.00 | 54 | 1005.7 |
| 20260901005252 | 93 | 207 | 3.0 | 0.0 | 0.00 | 0.00 | 0.00 | 54 | 1005.7 |
| 20260901005146 | 93 | 201 | 3.0 | 0.0 | 0.00 | 0.00 | 0.00 | 53 | 1005.7 |
| 20260901005106 | 93 | 140 | 3.0 | 0.0 | 0.00 | 0.00 | 0.00 | 53 | 1005.5 |
| 20260901004959 | 93 | 143 | 3.0 | 0.0 | 0.00 | 0.00 | 0.00 | 52 | 1005.5 |
| 20260901004904 | 93 | 182 | 3.0 | 0.0 | 0.00 | 0.00 | 0.00 | 52 | 1005.5 |
| 20260901004758 | 94 | 281 | 3.0 | 0.0 | 0.00 | 0.00 | 0.00 | 52 | 1005.5 |
| 20260901004652 | 94 | 209 | 3.0 | 0.0 | 0.00 | 0.00 | 0.00 | 51 | 1005.5 |
| 20260901004554 | 94 | 219 | 2.0 | 0.0 | 0.00 | 0.00 | 0.00 | 51 | 1005.5 |
| 20260901004445 | 94 | 155 | 3.0 | 0.0 | 0.00 | 0.00 | 0.00 | 51 | 1005.5 |
| 20260901004412 | 94 | 223 | 2.0 | 0.0 | 0.00 | 0.00 | 0.00 | 51 | 1005.5 |
| 20260901004248 | 94 | 208 | 2.0 | 0.0 | 0.00 | 0.00 | 0.00 | 50 | 1005.5 |
| 20260901004201 | 94 | 207 | 2.0 | 0.0 | 0.00 | 0.00 | 0.00 | 50 | 1005.5 |
| 20260901004105 | 94 | 210 | 2.0 | 0.0 | 0.00 | 0.00 | 0.00 | 50 | 1005.5 |
| 20260901004000 | 94 | 131 | 1.0 | 0.0 | 0.00 | 0.00 | 0.00 | 50 | 1005.5 |
| 20260901003853 | 94 | 90 | 1.0 | 0.0 | 0.00 | 0.00 | 0.00 | 50 | 1005.5 |
| 20260901003753 | 94 | 203 | 2.0 | 0.0 | 0.00 | 0.00 | 0.00 | 50 | 1005.5 |
| 20260901003648 | 94 | 202 | 2.0 | 0.0 | 0.00 | 0.00 | 0.00 | 50 | 1005.5 |
| 20260901003609 | 94 | 205 | 2.0 | 0.0 | 0.00 | 0.00 | 0.00 | 50 | 1005.5 |
| 20260901003446 | 95 | 166 | 2.0 | 0.0 | 0.00 | 0.00 | 0.00 | 50 | 1005.2 |
| 20260901003358 | 95 | 95 | 2.0 | 0.0 | 0.00 | 0.00 | 0.00 | 50 | 1005.2 |
| 20260901003258 | 95 | 309 | 2.0 | 0.0 | 0.00 | 0.00 | 0.00 | 50 | 1005.2 |
| 20260901003153 | 95 | 171 | 2.0 | 0.0 | 0.00 | 0.00 | 0.00 | 50 | 1005.2 |
| 20260901003046 | 95 | 171 | 3.0 | 0.0 | 0.00 | 0.00 | 0.00 | 50 | 1005.2 |
| 20260901003007 | 95 | 207 | 3.0 | 0.0 | 0.00 | 0.00 | 0.00 | 50 | 1005.2 |
| 20260901002913 | 95 | 138 | 3.0 | 0.0 | 0.00 | 0.00 | 0.00 | 50 | 1005.2 |
| 20260901002748 | 95 | 230 | 3.0 | 0.0 | 0.00 | 0.00 | 0.00 | 50 | 1005.2 |
| 20260901002702 | 95 | 150 | 3.0 | 0.0 | 0.00 | 0.00 | 0.00 | 49 | 1005.2 |
| 20260901002608 | 95 | 210 | 3.0 | 0.0 | 0.00 | 0.00 | 0.00 | 49 | 1005.2 |
| 20260901002532 | 95 | 157 | 3.0 | 0.0 | 0.00 | 0.00 | 0.00 | 49 | 1005.2 |
| 20260901002402 | 95 | 13 | 3.0 | 0.0 | 0.00 | 0.00 | 0.00 | 49 | 1005.2 |
| 20260901002246 | 95 | 239 | 3.0 | 0.0 | 0.00 | 0.00 | 0.00 | 49 | 1005.2 |
| 20260901002201 | 96 | 229 | 3.0 | 0.0 | 0.00 | 0.00 | 0.00 | 49 | 1005.2 |
| 20260901002101 | 96 | 186 | 3.0 | 0.0 | 0.00 | 0.00 | 0.00 | 49 | 1005.2 |
| 20260901001944 | 96 | 158 | 3.0 | 0.0 | 0.00 | 0.00 | 0.00 | 49 | 1005.1 |
| 20260901001856 | 96 | 157 | 3.0 | 0.0 | 0.00 | 0.00 | 0.00 | 49 | 1005.1 |
| 20260901001758 | 96 | 210 | 3.0 | 0.0 | 0.00 | 0.00 | 0.00 | 49 | 1005.1 |
| 20260901001654 | 96 | 195 | 3.0 | 0.0 | 0.00 | 0.00 | 0.00 | 48 | 1005.1 |
| 20260901001545 | 96 | 176 | 3.0 | 0.0 | 0.00 | 0.00 | 0.00 | 48 | 1005.1 |
| 20260901001448 | 96 | 239 | 3.0 | 0.0 | 0.00 | 0.00 | 0.00 | 48 | 1005.1 |
| 20260901001359 | 96 | 241 | 3.0 | 0.0 | 0.00 | 0.00 | 0.00 | 48 | 1005.1 |
| 20260901001243 | 96 | 292 | 4.0 | 0.0 | 0.00 | 0.00 | 0.00 | 48 | 1005.1 |
| 20260901001158 | 96 | 304 | 4.0 | 0.0 | 0.00 | 0.00 | 0.00 | 48 | 1005.1 |
| 20260901001100 | 96 | 180 | 4.0 | 0.0 | 0.00 | 0.00 | 0.00 | 48 | 1005.1 |
| 20260901000952 | 97 | 193 | 5.0 | 0.0 | 0.00 | 0.00 | 0.00 | 48 | 1005.1 |
| 20260901000843 | 97 | 146 | 4.0 | 0.0 | 0.00 | 0.00 | 0.00 | 47 | 1005.1 |
| 20260901000748 | 97 | 224 | 4.0 | 0.0 | 0.00 | 0.00 | 0.00 | 46 | 1005.1 |
| 20260901000646 | 97 | 163 | 4.0 | 0.0 | 0.00 | 0.00 | 0.00 | 46 | 1005.1 |
| 20260901000552 | 97 | 163 | 4.0 | 0.0 | 0.00 | 0.00 | 0.00 | 46 | 1005.1 |
| 20260901000458 | 97 | 163 | 4.0 | 0.0 | 0.00 | 0.00 | 0.00 | 46 | 1004.9 |
| 20260901000352 | 97 | 242 | 4.0 | 0.0 | 0.00 | 0.00 | 0.00 | 46 | 1004.9 |
| 20260901000255 | 97 | 169 | 4.0 | 0.0 | 0.00 | 0.00 | 0.00 | 46 | 1004.9 |
| 20260901000144 | 97 | 12 | 4.0 | 0.0 | 0.00 | 0.00 | 0.00 | 46 | 1004.9 |
| 20260901000108 | 97 | 172 | 3.0 | 0.0 | 0.00 | 0.00 | 0.00 | 46 | 1004.9 |
| 20260831235959 | 97 | 196 | 3.0 | 0.0 | 0.00 | 0.00 | 0.00 | 45 | 1004.9 |
| 20260831235859 | 97 | 230 | 3.0 | 0.0 | 0.00 | 0.00 | 0.00 | 45 | 1004.9 |
| 20260831235802 | 97 | 148 | 2.0 | 0.0 | 0.00 | 0.00 | 0.00 | 46 | 1004.9 |
| 20260831235705 | 97 | 194 | 2.0 | 0.0 | 0.00 | 0.00 | 0.00 | 45 | 1004.9 |
| 20260831235556 | 98 | 80 | 2.0 | 0.0 | 0.00 | 0.00 | 0.00 | 45 | 1004.9 |
| 20260831235457 | 98 | 186 | 2.0 | 0.0 | 0.00 | 0.00 | 0.00 | 46 | 1004.9 |
| 20260831235355 | 98 | 217 | 2.0 | 0.0 | 0.00 | 0.00 | 0.00 | 46 | 1004.9 |
| 20260831235256 | 98 | 217 | 2.0 | 0.0 | 0.00 | 0.00 | 0.00 | 46 | 1004.9 |
| 20260831235200 | 98 | 217 | 2.0 | 0.0 | 0.00 | 0.00 | 0.00 | 46 | 1004.9 |
| 20260831235059 | 98 | 217 | 2.0 | 0.0 | 0.00 | 0.00 | 0.00 | 46 | 1004.9 |
| 20260831235008 | 98 | 217 | 2.0 | 0.0 | 0.00 | 0.00 | 0.00 | 46 | 1005.0 |
| 20260831234900 | 98 | 196 | 2.0 | 0.0 | 0.00 | 0.00 | 0.00 | 46 | 1005.0 |
| 20260831234753 | 98 | 174 | 2.0 | 0.0 | 0.00 | 0.00 | 0.00 | 45 | 1005.0 |
| 20260831234655 | 98 | 211 | 2.0 | 0.0 | 0.00 | 0.00 | 0.00 | 45 | 1005.0 |
| 20260831234547 | 98 | 229 | 2.0 | 0.0 | 0.00 | 0.00 | 0.00 | 45 | 1005.0 |
| 20260831234511 | 98 | 144 | 2.0 | 0.0 | 0.00 | 0.00 | 0.00 | 45 | 1005.0 |
| 20260831234346 | 98 | 220 | 2.0 | 0.0 | 0.00 | 0.00 | 0.00 | 45 | 1005.0 |
| 20260831234243 | 98 | 217 | 2.0 | 0.0 | 0.00 | 0.00 | 0.00 | 45 | 1005.0 |
| 20260831234206 | 98 | 215 | 2.0 | 0.0 | 0.00 | 0.00 | 0.00 | 45 | 1005.0 |
| 20260831234057 | 98 | 175 | 3.0 | 0.0 | 0.00 | 0.00 | 0.00 | 45 | 1005.0 |
| 20260831233952 | 98 | 152 | 2.0 | 0.0 | 0.00 | 0.00 | 0.00 | 45 | 1005.0 |
| 20260831233913 | 98 | 316 | 3.0 | 0.0 | 0.00 | 0.00 | 0.00 | 46 | 1005.0 |
| 20260831233811 | 98 | 201 | 3.0 | 0.0 | 0.00 | 0.00 | 0.00 | 46 | 1005.0 |
| 20260831233645 | 98 | 245 | 2.0 | 0.0 | 0.00 | 0.00 | 0.00 | 46 | 1005.0 |
| 20260831233551 | 98 | 334 | 2.0 | 0.0 | 0.00 | 0.00 | 0.00 | 46 | 1005.0 |
| 20260831233511 | 98 | 199 | 2.0 | 0.0 | 0.00 | 0.00 | 0.00 | 45 | 1004.7 |
| 20260831233344 | 98 | 192 | 3.0 | 0.0 | 0.00 | 0.00 | 0.00 | 46 | 1004.7 |
| 20260831233311 | 98 | 227 | 3.0 | 0.0 | 0.00 | 0.00 | 0.00 | 46 | 1004.7 |
| 20260831233146 | 98 | 184 | 2.0 | 0.0 | 0.00 | 0.00 | 0.00 | 46 | 1004.7 |
| 20260831233100 | 99 | 198 | 2.0 | 0.0 | 0.00 | 0.00 | 0.00 | 46 | 1004.7 |
| 20260831233003 | 99 | 148 | 2.0 | 0.0 | 0.00 | 0.00 | 0.00 | 46 | 1004.7 |
| 20260831232858 | 99 | 211 | 2.0 | 0.0 | 0.00 | 0.00 | 0.00 | 46 | 1004.7 |
| 20260831232753 | 99 | 157 | 2.0 | 0.0 | 0.00 | 0.00 | 0.00 | 46 | 1004.7 |
| 20260831232653 | 99 | 206 | 2.0 | 0.0 | 0.00 | 0.00 | 0.00 | 45 | 1004.7 |
| 20260831232546 | 99 | 278 | 2.0 | 0.0 | 0.00 | 0.00 | 0.00 | 45 | 1004.7 |
| 20260831232508 | 99 | 256 | 2.0 | 0.0 | 0.00 | 0.00 | 0.00 | 45 | 1004.7 |
| 20260831232400 | 99 | 192 | 2.0 | 0.0 | 0.00 | 0.00 | 0.00 | 45 | 1004.7 |
| 20260831232305 | 99 | 217 | 2.0 | 0.0 | 0.00 | 0.00 | 0.00 | 44 | 1004.7 |
| 20260831232155 | 99 | 154 | 2.0 | 0.0 | 0.00 | 0.00 | 0.00 | 44 | 1004.7 |
| 20260831232053 | 99 | 227 | 3.0 | 0.0 | 0.00 | 0.00 | 0.00 | 45 | 1004.7 |
| 20260831231958 | 99 | 204 | 3.0 | 0.0 | 0.00 | 0.00 | 0.00 | 45 | 1004.9 |
| 20260831231910 | 99 | 195 | 3.0 | 0.0 | 0.00 | 0.00 | 0.00 | 45 | 1004.9 |
| 20260831231814 | 99 | 76 | 3.0 | 0.0 | 0.00 | 0.00 | 0.00 | 45 | 1004.9 |
| 20260831231735 | 99 | 93 | 3.0 | 0.0 | 0.00 | 0.00 | 0.00 | 45 | 1004.9 |
| 20260831231546 | 99 | 169 | 3.0 | 0.0 | 0.00 | 0.00 | 0.00 | 45 | 1004.9 |
| 20260831231458 | 99 | 252 | 3.0 | 0.0 | 0.00 | 0.00 | 0.00 | 45 | 1004.9 |
| 20260831231357 | 99 | 198 | 3.0 | 0.0 | 0.00 | 0.00 | 0.00 | 45 | 1004.9 |
| 20260831231256 | 99 | 210 | 3.0 | 0.0 | 0.00 | 0.00 | 0.00 | 45 | 1004.9 |
| 20260831231149 | 99 | 158 | 3.0 | 0.0 | 0.00 | 0.00 | 0.00 | 45 | 1004.9 |
| 20260831231050 | 99 | 207 | 3.0 | 0.0 | 0.00 | 0.00 | 0.00 | 45 | 1004.9 |
| 20260831230944 | 99 | 186 | 3.0 | 0.0 | 0.00 | 0.00 | 0.00 | 44 | 1004.9 |
| 20260831230911 | 99 | 82 | 3.0 | 0.0 | 0.00 | 0.00 | 0.00 | 44 | 1004.9 |
| 20260831230743 | 100 | 175 | 3.0 | 0.0 | 0.00 | 0.00 | 0.00 | 44 | 1004.9 |
| 20260831230711 | 100 | 277 | 3.0 | 0.0 | 0.00 | 0.00 | 0.00 | 44 | 1004.9 |
| 20260831230545 | 100 | 45 | 3.0 | 0.0 | 0.00 | 0.00 | 0.00 | 44 | 1004.7 |
| 20260831230509 | 100 | 224 | 2.0 | 0.0 | 0.00 | 0.00 | 0.00 | 45 | 1004.7 |
| 20260831230405 | 100 | 220 | 2.0 | 0.0 | 0.00 | 0.00 | 0.00 | 45 | 1004.7 |
| 20260831230304 | 100 | 221 | 2.0 | 0.0 | 0.00 | 0.00 | 0.00 | 45 | 1004.7 |
| 20260831230200 | 100 | 153 | 2.0 | 0.0 | 0.00 | 0.00 | 0.00 | 44 | 1004.7 |
| 20260831230051 | 100 | 204 | 2.0 | 0.0 | 0.00 | 0.00 | 0.00 | 43 | 1004.7 |
| 20260831225953 | 100 | 163 | 2.0 | 0.0 | 0.00 | 0.00 | 0.00 | 43 | 1004.7 |
| 20260831225844 | 100 | 169 | 2.0 | 0.0 | 0.00 | 0.00 | 0.00 | 44 | 1004.7 |
| 20260831225741 | 100 | 146 | 2.0 | 0.0 | 0.00 | 0.00 | 0.00 | 43 | 1004.7 |
| 20260831225708 | 100 | 272 | 2.0 | 0.0 | 0.00 | 0.00 | 0.00 | 43 | 1004.7 |
| 20260831225553 | 100 | 184 | 2.0 | 0.0 | 0.00 | 0.00 | 0.00 | 43 | 1004.7 |
| 20260831225445 | 100 | 71 | 2.0 | 0.0 | 0.00 | 0.00 | 0.00 | 43 | 1004.7 |
| 20260831225409 | 100 | 181 | 2.0 | 0.0 | 0.00 | 0.00 | 0.00 | 43 | 1004.7 |
| 20260831225301 | 100 | 236 | 2.0 | 0.0 | 0.00 | 0.00 | 0.00 | 42 | 1004.7 |
| 20260831225154 | 100 | 185 | 2.0 | 0.0 | 0.00 | 0.00 | 0.00 | 42 | 1004.7 |
| 20260831225054 | 101 | 223 | 2.0 | 0.0 | 0.00 | 0.00 | 0.00 | 42 | 1004.7 |
| 20260831224949 | 101 | 103 | 2.0 | 0.0 | 0.00 | 0.00 | 0.00 | 42 | 1004.7 |
| 20260831224909 | 101 | 315 | 2.0 | 0.0 | 0.00 | 0.00 | 0.00 | 41 | 1004.7 |
| 20260831224804 | 101 | 192 | 2.0 | 0.0 | 0.00 | 0.00 | 0.00 | 41 | 1004.7 |
| 20260831224707 | 101 | 65 | 2.0 | 0.0 | 0.00 | 0.00 | 0.00 | 41 | 1004.7 |
| 20260831224600 | 101 | 153 | 2.0 | 0.0 | 0.00 | 0.00 | 0.00 | 41 | 1004.7 |
| 20260831224452 | 101 | 290 | 2.0 | 0.0 | 0.00 | 0.00 | 0.00 | 41 | 1004.7 |
| 20260831224358 | 101 | 186 | 2.0 | 0.0 | 0.00 | 0.00 | 0.00 | 41 | 1004.7 |
| 20260831224316 | 101 | 173 | 2.0 | 0.0 | 0.00 | 0.00 | 0.00 | 41 | 1004.7 |
| 20260831224159 | 101 | 167 | 2.0 | 0.0 | 0.00 | 0.00 | 0.00 | 41 | 1004.7 |
| 20260831224110 | 101 | 224 | 2.0 | 0.0 | 0.00 | 0.00 | 0.00 | 41 | 1004.7 |
| 20260831223956 | 101 | 201 | 2.0 | 0.0 | 0.00 | 0.00 | 0.00 | 41 | 1004.7 |
| 20260831223848 | 101 | 221 | 2.0 | 0.0 | 0.00 | 0.00 | 0.00 | 40 | 1004.7 |
| 20260831223742 | 101 | 87 | 2.0 | 0.0 | 0.00 | 0.00 | 0.00 | 40 | 1004.7 |
| 20260831223649 | 101 | 184 | 2.0 | 0.0 | 0.00 | 0.00 | 0.00 | 40 | 1004.7 |
| 20260831223608 | 101 | 86 | 2.0 | 0.0 | 0.00 | 0.00 | 0.00 | 40 | 1004.7 |
| 20260831223513 | 101 | 229 | 2.0 | 0.0 | 0.00 | 0.00 | 0.00 | 40 | 1004.7 |
| 20260831223434 | 101 | 279 | 2.0 | 0.0 | 0.00 | 0.00 | 0.00 | 40 | 1004.7 |
| 20260831223244 | 101 | 198 | 2.0 | 0.0 | 0.00 | 0.00 | 0.00 | 40 | 1004.7 |
| 20260831223158 | 101 | 65 | 2.0 | 0.0 | 0.00 | 0.00 | 0.00 | 40 | 1004.7 |
| 20260831223103 | 101 | 139 | 2.0 | 0.0 | 0.00 | 0.00 | 0.00 | 40 | 1004.7 |
| 20260831222957 | 101 | 184 | 2.0 | 0.0 | 0.00 | 0.00 | 0.00 | 40 | 1004.7 |
| 20260831222919 | 101 | 206 | 2.0 | 0.0 | 0.00 | 0.00 | 0.00 | 40 | 1004.7 |
| 20260831222758 | 101 | 177 | 2.0 | 0.0 | 0.00 | 0.00 | 0.00 | 41 | 1004.7 |
| 20260831222652 | 101 | 232 | 2.0 | 0.0 | 0.00 | 0.00 | 0.00 | 41 | 1004.7 |
| 20260831222547 | 101 | 186 | 2.0 | 0.0 | 0.00 | 0.00 | 0.00 | 40 | 1004.7 |
| 20260831222450 | 101 | 218 | 2.0 | 0.0 | 0.00 | 0.00 | 0.00 | 41 | 1004.7 |
| 20260831222344 | 101 | 165 | 2.0 | 0.0 | 0.00 | 0.00 | 0.00 | 41 | 1004.7 |
| 20260831222308 | 101 | 204 | 2.0 | 0.0 | 0.00 | 0.00 | 0.00 | 41 | 1004.7 |
| 20260831222203 | 102 | 173 | 2.0 | 0.0 | 0.00 | 0.00 | 0.00 | 41 | 1004.7 |
| 20260831222052 | 102 | 223 | 2.0 | 0.0 | 0.00 | 0.00 | 0.00 | 41 | 1004.7 |
| 20260831222000 | 102 | 221 | 2.0 | 0.0 | 0.00 | 0.00 | 0.00 | 42 | 1005.0 |
| 20260831221859 | 102 | 205 | 2.0 | 0.0 | 0.00 | 0.00 | 0.00 | 41 | 1005.0 |
| 20260831221752 | 102 | 207 | 2.0 | 0.0 | 0.00 | 0.00 | 0.00 | 41 | 1005.0 |
| 20260831221654 | 102 | 202 | 2.0 | 0.0 | 0.00 | 0.00 | 0.00 | 41 | 1005.0 |
| 20260831221548 | 102 | 24 | 2.0 | 0.0 | 0.00 | 0.00 | 0.00 | 41 | 1005.0 |
| 20260831221511 | 102 | 208 | 2.0 | 0.0 | 0.00 | 0.00 | 0.00 | 42 | 1005.0 |
| 20260831221406 | 102 | 229 | 2.0 | 0.0 | 0.00 | 0.00 | 0.00 | 42 | 1005.0 |
| 20260831221308 | 102 | 153 | 2.0 | 0.0 | 0.00 | 0.00 | 0.00 | 42 | 1005.0 |
| 20260831221208 | 102 | 242 | 1.0 | 0.0 | 0.00 | 0.00 | 0.00 | 41 | 1005.0 |
| 20260831221129 | 102 | 169 | 1.0 | 0.0 | 0.00 | 0.00 | 0.00 | 41 | 1005.0 |
| 20260831221004 | 102 | 99 | 1.0 | 0.0 | 0.00 | 0.00 | 0.00 | 42 | 1005.0 |
| 20260831220925 | 102 | 202 | 1.0 | 0.0 | 0.00 | 0.00 | 0.00 | 41 | 1005.0 |
| 20260831220825 | 102 | 146 | 1.0 | 0.0 | 0.00 | 0.00 | 0.00 | 41 | 1005.0 |
| 20260831220654 | 102 | 200 | 1.0 | 0.0 | 0.00 | 0.00 | 0.00 | 41 | 1005.0 |
| 20260831220619 | 102 | 48 | 1.0 | 0.0 | 0.00 | 0.00 | 0.00 | 42 | 1005.0 |
| 20260831220453 | 102 | 119 | 1.0 | 0.0 | 0.00 | 0.00 | 0.00 | 42 | 1005.0 |
| 20260831220352 | 102 | 246 | 1.0 | 0.0 | 0.00 | 0.00 | 0.00 | 42 | 1005.0 |
| 20260831220256 | 102 | 150 | 1.0 | 0.0 | 0.00 | 0.00 | 0.00 | 42 | 1005.0 |
| 20260831220220 | 102 | 257 | 1.0 | 0.0 | 0.00 | 0.00 | 0.00 | 42 | 1005.0 |
| 20260831220054 | 102 | 184 | 1.0 | 0.0 | 0.00 | 0.00 | 0.00 | 42 | 1005.0 |
| 20260831215946 | 102 | 200 | 1.0 | 0.0 | 0.00 | 0.00 | 0.00 | 43 | 1005.0 |
| 20260831215907 | 102 | 92 | 1.0 | 0.0 | 0.00 | 0.00 | 0.00 | 43 | 1005.0 |
| 20260831215811 | 102 | 238 | 1.0 | 0.0 | 0.00 | 0.00 | 0.00 | 43 | 1005.0 |
| 20260831215705 | 102 | 164 | 1.0 | 0.0 | 0.00 | 0.00 | 0.00 | 42 | 1005.0 |
| 20260831215605 | 102 | 195 | 1.0 | 0.0 | 0.00 | 0.00 | 0.00 | 43 | 1005.0 |
| 20260831215517 | 103 | 217 | 1.0 | 0.0 | 0.00 | 0.00 | 0.00 | 43 | 1005.0 |
| 20260831215416 | 103 | 192 | 1.0 | 0.0 | 0.00 | 0.00 | 0.00 | 43 | 1005.0 |
| 20260831215254 | 103 | 173 | 1.0 | 0.0 | 0.00 | 0.00 | 0.00 | 42 | 1005.0 |
| 20260831215214 | 102 | 242 | 1.0 | 0.0 | 0.00 | 0.00 | 0.00 | 42 | 1005.0 |
| 20260831215043 | 102 | 234 | 2.0 | 0.0 | 0.00 | 0.00 | 0.00 | 42 | 1005.0 |
| 20260831214949 | 102 | 40 | 2.0 | 0.0 | 0.00 | 0.00 | 0.00 | 43 | 1005.0 |
| 20260831214905 | 102 | 162 | 2.0 | 0.0 | 0.00 | 0.00 | 0.00 | 43 | 1005.0 |
| 20260831214744 | 102 | 238 | 2.0 | 0.0 | 0.00 | 0.00 | 0.00 | 43 | 1005.0 |
| 20260831214658 | 102 | 152 | 2.0 | 0.0 | 0.00 | 0.00 | 0.00 | 43 | 1005.0 |
| 20260831214602 | 102 | 184 | 3.0 | 0.0 | 0.00 | 0.00 | 0.00 | 43 | 1005.0 |
| 20260831214458 | 102 | 242 | 3.0 | 0.0 | 0.00 | 0.00 | 0.00 | 42 | 1005.0 |
| 20260831214348 | 102 | 306 | 2.0 | 0.0 | 0.00 | 0.00 | 0.00 | 43 | 1005.0 |
| 20260831214251 | 103 | 216 | 2.0 | 0.0 | 0.00 | 0.00 | 0.00 | 43 | 1005.0 |
| 20260831214143 | 103 | 195 | 2.0 | 0.0 | 0.00 | 0.00 | 0.00 | 43 | 1005.0 |
| 20260831214107 | 102 | 55 | 2.0 | 0.0 | 0.00 | 0.00 | 0.00 | 43 | 1005.0 |
| 20260831213957 | 102 | 204 | 3.0 | 0.0 | 0.00 | 0.00 | 0.00 | 43 | 1005.0 |
| 20260831213916 | 103 | 196 | 2.0 | 0.0 | 0.00 | 0.00 | 0.00 | 43 | 1005.0 |
| 20260831213100 | 102 | 184 | 3.0 | 0.0 | 0.00 | 0.00 | 0.00 | 43 | 1005.1 |
| 20260831212952 | 102 | 204 | 3.0 | 0.0 | 0.00 | 0.00 | 0.00 | 43 | 1005.1 |
| 20260831212852 | 102 | 240 | 3.0 | 0.0 | 0.00 | 0.00 | 0.00 | 43 | 1005.1 |
| 20260831212753 | 102 | 171 | 3.0 | 0.0 | 0.00 | 0.00 | 0.00 | 44 | 1005.1 |
| 20260831212645 | 102 | 186 | 3.0 | 0.0 | 0.00 | 0.00 | 0.00 | 44 | 1005.1 |
| 20260831212551 | 102 | 215 | 3.0 | 0.0 | 0.00 | 0.00 | 0.00 | 44 | 1005.1 |
| 20260831212444 | 103 | 194 | 3.0 | 0.0 | 0.00 | 0.00 | 0.00 | 43 | 1005.1 |
| 20260831212408 | 103 | 222 | 3.0 | 0.0 | 0.00 | 0.00 | 0.00 | 43 | 1005.1 |
| 20260831212243 | 103 | 219 | 2.0 | 0.0 | 0.00 | 0.00 | 0.00 | 43 | 1005.1 |
| 20260831212200 | 103 | 215 | 2.0 | 0.0 | 0.00 | 0.00 | 0.00 | 43 | 1005.1 |
| 20260831212104 | 103 | 242 | 2.0 | 0.0 | 0.00 | 0.00 | 0.00 | 42 | 1005.1 |
| 20260831211957 | 103 | 210 | 2.0 | 0.0 | 0.00 | 0.00 | 0.00 | 43 | 1005.2 |
| 20260831211850 | 103 | 174 | 2.0 | 0.0 | 0.00 | 0.00 | 0.00 | 42 | 1005.2 |
| 20260831211752 | 103 | 217 | 2.0 | 0.0 | 0.00 | 0.00 | 0.00 | 42 | 1005.2 |
| 20260831211644 | 103 | 25 | 3.0 | 0.0 | 0.00 | 0.00 | 0.00 | 43 | 1005.2 |
| 20260831211611 | 103 | 196 | 3.0 | 0.0 | 0.00 | 0.00 | 0.00 | 43 | 1005.2 |
| 20260831211522 | 103 | 57 | 3.0 | 0.0 | 0.00 | 0.00 | 0.00 | 43 | 1005.2 |
| 20260831211350 | 103 | 211 | 3.0 | 0.0 | 0.00 | 0.00 | 0.00 | 43 | 1005.2 |
| 20260831211243 | 103 | 74 | 3.0 | 0.0 | 0.00 | 0.00 | 0.00 | 43 | 1005.2 |
| 20260831211156 | 103 | 107 | 3.0 | 0.0 | 0.00 | 0.00 | 0.00 | 43 | 1005.2 |
| 20260831211119 | 103 | 82 | 3.0 | 0.0 | 0.00 | 0.00 | 0.00 | 43 | 1005.2 |
| 20260831211007 | 103 | 213 | 3.0 | 0.0 | 0.00 | 0.00 | 0.00 | 43 | 1005.2 |
| 20260831210920 | 103 | 194 | 3.0 | 0.0 | 0.00 | 0.00 | 0.00 | 42 | 1005.2 |
| 20260831210801 | 103 | 219 | 2.0 | 0.0 | 0.00 | 0.00 | 0.00 | 42 | 1005.2 |
| 20260831210651 | 103 | 137 | 2.0 | 0.0 | 0.00 | 0.00 | 0.00 | 42 | 1005.2 |
| 20260831210551 | 104 | 207 | 2.0 | 0.0 | 0.00 | 0.00 | 0.00 | 42 | 1005.2 |
| 20260831210451 | 104 | 130 | 1.0 | 0.0 | 0.00 | 0.00 | 0.00 | 42 | 1005.5 |
| 20260831210411 | 104 | 224 | 2.0 | 0.0 | 0.00 | 0.00 | 0.00 | 41 | 1005.5 |
| 20260831210244 | 104 | 242 | 2.0 | 0.0 | 0.00 | 0.00 | 0.00 | 42 | 1005.5 |
| 20260831210210 | 104 | 154 | 2.0 | 0.0 | 0.00 | 0.00 | 0.00 | 42 | 1005.5 |
| 20260831210131 | 104 | 220 | 2.0 | 0.0 | 0.00 | 0.00 | 0.00 | 42 | 1005.5 |
| 20260831210005 | 104 | 191 | 2.0 | 0.0 | 0.00 | 0.00 | 0.00 | 42 | 1005.5 |
| 20260831205907 | 104 | 209 | 2.0 | 0.0 | 0.00 | 0.00 | 0.00 | 42 | 1005.5 |
| 20260831205746 | 104 | 237 | 2.0 | 0.0 | 0.00 | 0.00 | 0.00 | 42 | 1005.5 |
| 20260831205704 | 104 | 69 | 2.0 | 0.0 | 0.00 | 0.00 | 0.00 | 42 | 1005.5 |
| 20260831205606 | 104 | 211 | 2.0 | 0.0 | 0.00 | 0.00 | 0.00 | 42 | 1005.5 |
| 20260831205502 | 104 | 203 | 2.0 | 0.0 | 0.00 | 0.00 | 0.00 | 42 | 1005.5 |
| 20260831205357 | 104 | 233 | 2.0 | 0.0 | 0.00 | 0.00 | 0.00 | 40 | 1005.5 |
| 20260831205306 | 104 | 331 | 1.0 | 0.0 | 0.00 | 0.00 | 0.00 | 40 | 1005.5 |
| 20260831205201 | 104 | 190 | 1.0 | 0.0 | 0.00 | 0.00 | 0.00 | 40 | 1005.5 |
| 20260831205101 | 104 | 152 | 1.0 | 0.0 | 0.00 | 0.00 | 0.00 | 40 | 1005.5 |
| 20260831204957 | 104 | 202 | 0.0 | 0.0 | 0.00 | 0.00 | 0.00 | 40 | 1005.7 |
| 20260831204850 | 104 | 75 | 0.0 | 0.0 | 0.00 | 0.00 | 0.00 | 41 | 1005.7 |
| 20260831204811 | 104 | 204 | 1.0 | 0.0 | 0.00 | 0.00 | 0.00 | 41 | 1005.7 |
| 20260831204644 | 104 | 243 | 1.0 | 0.0 | 0.00 | 0.00 | 0.00 | 41 | 1005.7 |
| 20260831204551 | 104 | 38 | 2.0 | 0.0 | 0.00 | 0.00 | 0.00 | 41 | 1005.7 |
| 20260831204446 | 104 | 76 | 2.0 | 0.0 | 0.00 | 0.00 | 0.00 | 41 | 1005.7 |
| 20260831204351 | 104 | 234 | 2.0 | 0.0 | 0.00 | 0.00 | 0.00 | 40 | 1005.7 |
| 20260831204243 | 104 | 223 | 2.0 | 0.0 | 0.00 | 0.00 | 0.00 | 37 | 1005.7 |
| 20260831204153 | 104 | 201 | 2.0 | 0.0 | 0.00 | 0.00 | 0.00 | 37 | 1005.7 |
| 20260831204048 | 104 | 225 | 2.0 | 0.0 | 0.00 | 0.00 | 0.00 | 37 | 1005.7 |
| 20260831204010 | 104 | 105 | 2.0 | 0.0 | 0.00 | 0.00 | 0.00 | 37 | 1005.7 |
| 20260831203913 | 104 | 223 | 2.0 | 0.0 | 0.00 | 0.00 | 0.00 | 37 | 1005.7 |
| 20260831203804 | 104 | 218 | 1.0 | 0.0 | 0.00 | 0.00 | 0.00 | 37 | 1005.7 |
| 20260831203711 | 104 | 166 | 1.0 | 0.0 | 0.00 | 0.00 | 0.00 | 37 | 1005.7 |
| 20260831203602 | 104 | 233 | 1.0 | 0.0 | 0.00 | 0.00 | 0.00 | 37 | 1006.1 |
| 20260831203508 | 104 | 215 | 1.0 | 0.0 | 0.00 | 0.00 | 0.00 | 37 | 1006.1 |
| 20260831203344 | 104 | 163 | 1.0 | 0.0 | 0.00 | 0.00 | 0.00 | 36 | 1006.1 |
| 20260831203256 | 105 | 97 | 1.0 | 0.0 | 0.00 | 0.00 | 0.00 | 36 | 1006.1 |
| 20260831203200 | 105 | 130 | 1.0 | 0.0 | 0.00 | 0.00 | 0.00 | 36 | 1006.1 |
| 20260831203054 | 105 | 134 | 1.0 | 0.0 | 0.00 | 0.00 | 0.00 | 36 | 1006.1 |
| 20260831202958 | 105 | 273 | 1.0 | 0.0 | 0.00 | 0.00 | 0.00 | 37 | 1006.1 |
| 20260831202914 | 105 | 209 | 2.0 | 0.0 | 0.00 | 0.00 | 0.00 | 36 | 1006.1 |
| 20260831202758 | 105 | 208 | 1.0 | 0.0 | 0.00 | 0.00 | 0.00 | 36 | 1006.1 |
| 20260831202650 | 105 | 217 | 1.0 | 0.0 | 0.00 | 0.00 | 0.00 | 36 | 1006.1 |
| 20260831202550 | 105 | 186 | 1.0 | 0.0 | 0.00 | 0.00 | 0.00 | 36 | 1006.1 |
| 20260831202452 | 105 | 134 | 2.0 | 0.0 | 0.00 | 0.00 | 0.00 | 36 | 1006.1 |
| 20260831202346 | 105 | 236 | 1.0 | 0.0 | 0.00 | 0.00 | 0.00 | 36 | 1006.1 |
| 20260831202310 | 105 | 244 | 1.0 | 0.0 | 0.00 | 0.00 | 0.00 | 37 | 1006.1 |
| 20260831202200 | 105 | 203 | 1.0 | 0.0 | 0.00 | 0.00 | 0.00 | 37 | 1006.1 |
| 20260831202100 | 105 | 196 | 1.0 | 0.0 | 0.00 | 0.00 | 0.00 | 37 | 1006.1 |
| 20260831202001 | 105 | 226 | 1.0 | 0.0 | 0.00 | 0.00 | 0.00 | 37 | 1006.3 |
| 20260831201902 | 105 | 174 | 1.0 | 0.0 | 0.00 | 0.00 | 0.00 | 37 | 1006.3 |
| 20260831201805 | 105 | 236 | 2.0 | 0.0 | 0.00 | 0.00 | 0.00 | 37 | 1006.3 |
| 20260831201705 | 105 | 212 | 2.0 | 0.0 | 0.00 | 0.00 | 0.00 | 37 | 1006.3 |
| 20260831201559 | 105 | 198 | 2.0 | 0.0 | 0.00 | 0.00 | 0.00 | 37 | 1006.3 |
| 20260831201506 | 105 | 229 | 2.0 | 0.0 | 0.00 | 0.00 | 0.00 | 37 | 1006.3 |
| 20260831201356 | 104 | 167 | 2.0 | 0.0 | 0.00 | 0.00 | 0.00 | 37 | 1006.3 |
| 20260831201253 | 104 | 167 | 2.0 | 0.0 | 0.00 | 0.00 | 0.00 | 37 | 1006.3 |
| 20260831201155 | 104 | 15 | 2.0 | 0.0 | 0.00 | 0.00 | 0.00 | 37 | 1006.3 |
| 20260831201050 | 104 | 109 | 2.0 | 0.0 | 0.00 | 0.00 | 0.00 | 37 | 1006.3 |
| 20260831200956 | 104 | 84 | 3.0 | 0.0 | 0.00 | 0.00 | 0.00 | 38 | 1006.3 |
| 20260831200847 | 104 | 177 | 3.0 | 0.0 | 0.00 | 0.00 | 0.00 | 37 | 1006.3 |
| 20260831200811 | 104 | 157 | 2.0 | 0.0 | 0.00 | 0.00 | 0.00 | 38 | 1006.3 |
| 20260831200647 | 104 | 271 | 2.0 | 0.0 | 0.00 | 0.00 | 0.00 | 38 | 1006.3 |
| 20260831200603 | 104 | 152 | 2.0 | 0.0 | 0.00 | 0.00 | 0.00 | 38 | 1006.3 |
| 20260831200505 | 104 | 94 | 2.0 | 0.0 | 0.00 | 0.00 | 0.00 | 38 | 1006.5 |
| 20260831200359 | 104 | 191 | 2.0 | 0.0 | 0.00 | 0.00 | 0.00 | 38 | 1006.5 |
| 20260831200305 | 104 | 177 | 3.0 | 0.0 | 0.00 | 0.00 | 0.00 | 38 | 1006.5 |
| 20260831200222 | 104 | 157 | 2.0 | 0.0 | 0.00 | 0.00 | 0.00 | 38 | 1006.5 |
| 20260831195955 | 105 | 205 | 2.0 | 0.0 | 0.00 | 0.00 | 0.00 | 38 | 1006.5 |
| 20260831195848 | 104 | 48 | 1.0 | 0.0 | 0.00 | 0.00 | 0.00 | 39 | 1006.5 |
| 20260831195809 | 104 | 228 | 1.0 | 0.0 | 0.00 | 0.00 | 0.00 | 38 | 1006.5 |
| 20260831195711 | 105 | 98 | 1.0 | 0.0 | 0.00 | 0.00 | 0.00 | 38 | 1006.5 |
| 20260831195543 | 105 | 166 | 1.0 | 0.0 | 0.00 | 0.00 | 0.00 | 39 | 1006.5 |
| 20260831195443 | 105 | 86 | 1.0 | 0.0 | 0.00 | 0.00 | 0.00 | 39 | 1006.5 |
| 20260831195407 | 105 | 86 | 1.0 | 0.0 | 0.00 | 0.00 | 0.00 | 39 | 1006.5 |
| 20260831195302 | 105 | 105 | 1.0 | 0.0 | 0.00 | 0.00 | 0.00 | 39 | 1006.5 |
| 20260831195208 | 105 | 222 | 1.0 | 0.0 | 0.00 | 0.00 | 0.00 | 39 | 1006.5 |
| 20260831195059 | 105 | 236 | 1.0 | 0.0 | 0.00 | 0.00 | 0.00 | 39 | 1006.5 |
| 20260831195021 | 105 | 295 | 2.0 | 0.0 | 0.00 | 0.00 | 0.00 | 39 | 1006.6 |
| 20260831194902 | 105 | 100 | 2.0 | 0.0 | 0.00 | 0.00 | 0.00 | 39 | 1006.6 |
| 20260831194758 | 105 | 82 | 2.0 | 0.0 | 0.00 | 0.00 | 0.00 | 39 | 1006.6 |
| 20260831194725 | 105 | 278 | 2.0 | 0.0 | 0.00 | 0.00 | 0.00 | 39 | 1006.6 |
| 20260831194632 | 105 | 89 | 2.0 | 0.0 | 0.00 | 0.00 | 0.00 | 38 | 1006.6 |
| 20260831194510 | 105 | 172 | 1.0 | 0.0 | 0.00 | 0.00 | 0.00 | 39 | 1006.6 |
| 20260831194412 | 105 | 201 | 1.0 | 0.0 | 0.00 | 0.00 | 0.00 | 39 | 1006.6 |
| 20260831194305 | 105 | 213 | 1.0 | 0.0 | 0.00 | 0.00 | 0.00 | 39 | 1006.6 |
| 20260831194208 | 105 | 208 | 1.0 | 0.0 | 0.00 | 0.00 | 0.00 | 39 | 1006.6 |
| 20260831194121 | 105 | 163 | 1.0 | 0.0 | 0.00 | 0.00 | 0.00 | 40 | 1006.6 |
| 20260831194001 | 105 | 80 | 1.0 | 0.0 | 0.00 | 0.00 | 0.00 | 40 | 1006.6 |
| 20260831193913 | 104 | 158 | 1.0 | 0.0 | 0.00 | 0.00 | 0.00 | 39 | 1006.6 |
| 20260831193753 | 104 | 178 | 2.0 | 0.0 | 0.00 | 0.00 | 0.00 | 40 | 1006.6 |
| 20260831193645 | 104 | 205 | 2.0 | 0.0 | 0.00 | 0.00 | 0.00 | 39 | 1006.6 |
| 20260831193540 | 104 | 207 | 2.0 | 0.0 | 0.00 | 0.00 | 0.00 | 40 | 1006.7 |
| 20260831193447 | 104 | 197 | 2.0 | 0.0 | 0.00 | 0.00 | 0.00 | 39 | 1006.7 |
| 20260831193400 | 105 | 63 | 2.0 | 0.0 | 0.00 | 0.00 | 0.00 | 39 | 1006.7 |
| 20260831193301 | 105 | 110 | 2.0 | 0.0 | 0.00 | 0.00 | 0.00 | 39 | 1006.7 |
| 20260831193216 | 105 | 84 | 2.0 | 0.0 | 0.00 | 0.00 | 0.00 | 39 | 1006.7 |
| 20260831193058 | 105 | 180 | 2.0 | 0.0 | 0.00 | 0.00 | 0.00 | 40 | 1006.7 |
| 20260831192954 | 105 | 175 | 2.0 | 0.0 | 0.00 | 0.00 | 0.00 | 39 | 1006.7 |
| 20260831192851 | 105 | 176 | 2.0 | 0.0 | 0.00 | 0.00 | 0.00 | 39 | 1006.7 |
| 20260831192755 | 105 | 227 | 2.0 | 0.0 | 0.00 | 0.00 | 0.00 | 40 | 1006.7 |
| 20260831192647 | 105 | 208 | 2.0 | 0.0 | 0.00 | 0.00 | 0.00 | 39 | 1006.7 |
| 20260831192612 | 105 | 226 | 1.0 | 0.0 | 0.00 | 0.00 | 0.00 | 40 | 1006.7 |
| 20260831192502 | 105 | 165 | 1.0 | 0.0 | 0.00 | 0.00 | 0.00 | 39 | 1006.7 |
| 20260831192406 | 105 | 69 | 1.0 | 0.0 | 0.00 | 0.00 | 0.00 | 39 | 1006.7 |
| 20260831192305 | 105 | 267 | 1.0 | 0.0 | 0.00 | 0.00 | 0.00 | 40 | 1006.7 |
| 20260831192205 | 105 | 236 | 1.0 | 0.0 | 0.00 | 0.00 | 0.00 | 40 | 1006.7 |
| 20260831192045 | 105 | 206 | 1.0 | 0.0 | 0.00 | 0.00 | 0.00 | 41 | 1007.0 |
| 20260831192010 | 105 | 84 | 1.0 | 0.0 | 0.00 | 0.00 | 0.00 | 41 | 1007.0 |
| 20260831191905 | 105 | 154 | 1.0 | 0.0 | 0.00 | 0.00 | 0.00 | 40 | 1007.0 |
| 20260831191827 | 105 | 194 | 1.0 | 0.0 | 0.00 | 0.00 | 0.00 | 40 | 1007.0 |
| 20260831191700 | 105 | 167 | 1.0 | 0.0 | 0.00 | 0.00 | 0.00 | 40 | 1007.0 |
| 20260831191628 | 105 | 158 | 1.0 | 0.0 | 0.00 | 0.00 | 0.00 | 40 | 1007.0 |
| 20260831191459 | 105 | 172 | 1.0 | 0.0 | 0.00 | 0.00 | 0.00 | 41 | 1007.0 |
| 20260831191358 | 104 | 174 | 1.0 | 0.0 | 0.00 | 0.00 | 0.00 | 41 | 1007.0 |
| 20260831191258 | 104 | 106 | 2.0 | 0.0 | 0.00 | 0.00 | 0.00 | 40 | 1007.0 |
| 20260831191150 | 105 | 210 | 2.0 | 0.0 | 0.00 | 0.00 | 0.00 | 40 | 1007.0 |
| 20260831191058 | 105 | 151 | 2.0 | 0.0 | 0.00 | 0.00 | 0.00 | 40 | 1007.0 |
| 20260831191011 | 105 | 194 | 1.0 | 0.0 | 0.00 | 0.00 | 0.00 | 39 | 1007.0 |
| 20260831190851 | 105 | 180 | 1.0 | 0.0 | 0.00 | 0.00 | 0.00 | 40 | 1007.0 |
| 20260831190803 | 105 | 169 | 1.0 | 0.0 | 0.00 | 0.00 | 0.00 | 40 | 1007.0 |
| 20260831190704 | 105 | 191 | 1.0 | 0.0 | 0.00 | 0.00 | 0.00 | 39 | 1007.0 |
| 20260831190618 | 105 | 208 | 1.0 | 0.0 | 0.00 | 0.00 | 0.00 | 39 | 1007.0 |
| 20260831190506 | 105 | 199 | 1.0 | 0.0 | 0.00 | 0.00 | 0.00 | 39 | 1007.2 |
| 20260831190356 | 105 | 148 | 1.0 | 0.0 | 0.00 | 0.00 | 0.00 | 40 | 1007.2 |
| 20260831190302 | 105 | 196 | 1.0 | 0.0 | 0.00 | 0.00 | 0.00 | 41 | 1007.2 |
| 20260831190159 | 105 | 140 | 1.0 | 0.0 | 0.00 | 0.00 | 0.00 | 41 | 1007.2 |
| 20260831190051 | 105 | 74 | 1.0 | 0.0 | 0.00 | 0.00 | 0.00 | 41 | 1007.2 |
| 20260831185952 | 104 | 123 | 1.0 | 0.0 | 0.00 | 0.00 | 0.00 | 41 | 1007.1 |
| 20260831185903 | 104 | 146 | 1.0 | 0.0 | 0.00 | 0.00 | 0.00 | 41 | 1007.1 |
| 20260831185805 | 104 | 131 | 1.0 | 0.0 | 0.00 | 0.00 | 0.00 | 41 | 1007.1 |
| 20260831185643 | 104 | 212 | 2.0 | 0.0 | 0.00 | 0.00 | 0.00 | 41 | 1007.1 |
| 20260831185554 | 104 | 213 | 2.0 | 0.0 | 0.00 | 0.00 | 0.00 | 41 | 1007.1 |
| 20260831185519 | 104 | 211 | 2.0 | 0.0 | 0.00 | 0.00 | 0.00 | 41 | 1007.1 |
| 20260831185358 | 104 | 224 | 2.0 | 0.0 | 0.00 | 0.00 | 0.00 | 40 | 1007.1 |
| 20260831185254 | 104 | 217 | 2.0 | 0.0 | 0.00 | 0.00 | 0.00 | 41 | 1007.1 |
| 20260831185145 | 104 | 217 | 1.0 | 0.0 | 0.00 | 0.00 | 0.00 | 42 | 1007.1 |
| 20260831185051 | 103 | 187 | 1.0 | 0.0 | 0.00 | 0.00 | 0.00 | 42 | 1007.1 |
| 20260831184954 | 103 | 342 | 1.0 | 0.0 | 0.00 | 0.00 | 0.00 | 42 | 1007.5 |
| 20260831184850 | 103 | 254 | 2.0 | 0.0 | 0.00 | 0.00 | 0.00 | 43 | 1007.5 |
| 20260831184752 | 103 | 194 | 1.0 | 0.0 | 0.00 | 0.00 | 0.00 | 43 | 1007.5 |
| 20260831184644 | 103 | 115 | 1.0 | 0.0 | 0.00 | 0.00 | 0.00 | 43 | 1007.5 |
| 20260831184611 | 104 | 205 | 1.0 | 0.0 | 0.00 | 0.00 | 0.00 | 43 | 1007.5 |
| 20260831184444 | 104 | 212 | 1.0 | 0.0 | 0.00 | 0.00 | 0.00 | 42 | 1007.5 |
| 20260831184402 | 104 | 205 | 1.0 | 0.0 | 0.00 | 0.00 | 0.00 | 42 | 1007.5 |
| 20260831184310 | 104 | 197 | 1.0 | 0.0 | 0.00 | 0.00 | 0.00 | 43 | 1007.5 |
| 20260831184142 | 103 | 119 | 1.0 | 0.0 | 0.00 | 0.00 | 0.00 | 42 | 1007.5 |
| 20260831184058 | 103 | 225 | 1.0 | 0.0 | 0.00 | 0.00 | 0.00 | 43 | 1007.5 |
| 20260831184001 | 103 | 122 | 1.0 | 0.0 | 0.00 | 0.00 | 0.00 | 43 | 1007.5 |
| 20260831183853 | 103 | 89 | 1.0 | 0.0 | 0.00 | 0.00 | 0.00 | 42 | 1007.5 |
| 20260831183745 | 103 | 169 | 1.0 | 0.0 | 0.00 | 0.00 | 0.00 | 42 | 1007.5 |
| 20260831183652 | 103 | 175 | 1.0 | 0.0 | 0.00 | 0.00 | 0.00 | 42 | 1007.5 |
| 20260831183549 | 103 | 219 | 2.0 | 0.0 | 0.00 | 0.00 | 0.00 | 42 | 1007.5 |
| 20260831183511 | 103 | 238 | 2.0 | 0.0 | 0.00 | 0.00 | 0.00 | 42 | 1007.7 |
| 20260831183343 | 103 | 179 | 1.0 | 0.0 | 0.00 | 0.00 | 0.00 | 43 | 1007.7 |
| 20260831183255 | 103 | 160 | 1.0 | 0.0 | 0.00 | 0.00 | 0.00 | 43 | 1007.7 |
| 20260831183156 | 103 | 248 | 1.0 | 0.0 | 0.00 | 0.00 | 0.00 | 43 | 1007.7 |
| 20260831183048 | 103 | 209 | 1.0 | 0.0 | 0.00 | 0.00 | 0.00 | 43 | 1007.7 |
| 20260831182942 | 103 | 188 | 2.0 | 0.0 | 0.00 | 0.00 | 0.00 | 43 | 1007.7 |
| 20260831182852 | 103 | 154 | 2.0 | 0.0 | 0.00 | 0.00 | 0.00 | 43 | 1007.7 |
| 20260831182747 | 103 | 218 | 2.0 | 0.0 | 0.00 | 0.00 | 0.00 | 43 | 1007.7 |
| 20260831182709 | 103 | 204 | 2.0 | 0.0 | 0.00 | 0.00 | 0.00 | 43 | 1007.7 |
| 20260831182541 | 103 | 205 | 3.0 | 0.0 | 0.00 | 0.00 | 0.00 | 44 | 1007.7 |
| 20260831182455 | 103 | 150 | 3.0 | 0.0 | 0.00 | 0.00 | 0.00 | 44 | 1007.7 |
| 20260831182355 | 102 | 205 | 3.0 | 0.0 | 0.00 | 0.00 | 0.00 | 44 | 1007.7 |
| 20260831182250 | 102 | 182 | 3.0 | 0.0 | 0.00 | 0.00 | 0.00 | 44 | 1007.7 |
| 20260831182144 | 102 | 205 | 3.0 | 0.0 | 0.00 | 0.00 | 0.00 | 44 | 1007.7 |
| 20260831182111 | 102 | 182 | 3.0 | 0.0 | 0.00 | 0.00 | 0.00 | 44 | 1007.7 |
| 20260831181959 | 102 | 159 | 2.0 | 0.0 | 0.00 | 0.00 | 0.00 | 44 | 1007.7 |
| 20260831181913 | 102 | 178 | 2.0 | 0.0 | 0.00 | 0.00 | 0.00 | 44 | 1007.7 |
| 20260831181755 | 102 | 236 | 2.0 | 0.0 | 0.00 | 0.00 | 0.00 | 44 | 1007.7 |
| 20260831181649 | 102 | 178 | 2.0 | 0.0 | 0.00 | 0.00 | 0.00 | 45 | 1007.7 |
| 20260831181611 | 102 | 15 | 1.0 | 0.0 | 0.00 | 0.00 | 0.00 | 45 | 1007.7 |
| 20260831181449 | 102 | 173 | 1.0 | 0.0 | 0.00 | 0.00 | 0.00 | 46 | 1007.7 |
| 20260831181344 | 102 | 180 | 2.0 | 0.0 | 0.00 | 0.00 | 0.00 | 46 | 1007.7 |
| 20260831181308 | 102 | 234 | 1.0 | 0.0 | 0.00 | 0.00 | 0.00 | 46 | 1007.7 |
| 20260831181201 | 102 | 182 | 2.0 | 0.0 | 0.00 | 0.00 | 0.00 | 46 | 1007.7 |
| 20260831181105 | 102 | 137 | 1.0 | 0.0 | 0.00 | 0.00 | 0.00 | 46 | 1007.7 |
| 20260831181001 | 101 | 161 | 1.0 | 0.0 | 0.00 | 0.00 | 0.00 | 47 | 1007.7 |
| 20260831180924 | 101 | 205 | 2.0 | 0.0 | 0.00 | 0.00 | 0.00 | 47 | 1007.7 |
| 20260831180759 | 101 | 81 | 2.0 | 0.0 | 0.00 | 0.00 | 0.00 | 46 | 1007.7 |
| 20260831180655 | 101 | 207 | 2.0 | 0.0 | 0.00 | 0.00 | 0.00 | 47 | 1007.7 |
| 20260831180622 | 101 | 196 | 2.0 | 0.0 | 0.00 | 0.00 | 0.00 | 46 | 1007.7 |
| 20260831180504 | 101 | 232 | 2.0 | 0.0 | 0.00 | 0.00 | 0.00 | 46 | 1008.1 |
| 20260831180357 | 102 | 234 | 2.0 | 0.0 | 0.00 | 0.00 | 0.00 | 46 | 1008.1 |
| 20260831180249 | 102 | 197 | 2.0 | 0.0 | 0.00 | 0.00 | 0.00 | 47 | 1008.1 |
| 20260831180154 | 101 | 74 | 2.0 | 0.0 | 0.00 | 0.00 | 0.00 | 47 | 1008.1 |
| 20260831180109 | 101 | 229 | 2.0 | 0.0 | 0.00 | 0.00 | 0.00 | 46 | 1008.1 |
| 20260831180016 | 101 | 193 | 2.0 | 0.0 | 0.00 | 0.00 | 0.00 | 46 | 1008.1 |
| 20260831175937 | 101 | 223 | 2.0 | 0.0 | 0.00 | 0.00 | 0.00 | 46 | 1008.1 |
| 20260831175751 | 101 | 196 | 2.0 | 0.0 | 0.00 | 0.00 | 0.00 | 46 | 1008.1 |
| 20260831175703 | 101 | 142 | 2.0 | 0.0 | 0.00 | 0.00 | 0.00 | 47 | 1008.1 |
| 20260831175605 | 101 | 146 | 2.0 | 0.0 | 0.00 | 0.00 | 0.00 | 48 | 1008.1 |
| 20260831175501 | 101 | 194 | 2.0 | 0.0 | 0.00 | 0.00 | 0.00 | 47 | 1008.1 |
| 20260831175356 | 101 | 281 | 2.0 | 0.0 | 0.00 | 0.00 | 0.00 | 47 | 1008.1 |
| 20260831175257 | 101 | 177 | 2.0 | 0.0 | 0.00 | 0.00 | 0.00 | 47 | 1008.1 |
| 20260831175152 | 101 | 216 | 2.0 | 0.0 | 0.00 | 0.00 | 0.00 | 47 | 1008.1 |
| 20260831175047 | 101 | 206 | 2.0 | 0.0 | 0.00 | 0.00 | 0.00 | 47 | 1008.1 |
| 20260831175011 | 101 | 101 | 2.0 | 0.0 | 0.00 | 0.00 | 0.00 | 47 | 1008.2 |
| 20260831174914 | 101 | 216 | 2.0 | 0.0 | 0.00 | 0.00 | 0.00 | 48 | 1008.2 |
| 20260831174826 | 101 | 115 | 2.0 | 0.0 | 0.00 | 0.00 | 0.00 | 48 | 1008.2 |
| 20260831174706 | 101 | 221 | 2.0 | 0.0 | 0.00 | 0.00 | 0.00 | 49 | 1008.2 |
| 20260831174559 | 100 | 146 | 2.0 | 0.0 | 0.00 | 0.00 | 0.00 | 48 | 1008.2 |
| 20260831174451 | 100 | 172 | 1.0 | 0.0 | 0.00 | 0.00 | 0.00 | 49 | 1008.2 |
| 20260831174355 | 100 | 170 | 2.0 | 0.0 | 0.00 | 0.00 | 0.00 | 48 | 1008.2 |
| 20260831174250 | 100 | 187 | 2.0 | 0.0 | 0.00 | 0.00 | 0.00 | 49 | 1008.2 |
| 20260831174153 | 100 | 211 | 2.0 | 0.0 | 0.00 | 0.00 | 0.00 | 49 | 1008.2 |
| 20260831174103 | 100 | 288 | 2.0 | 0.0 | 0.00 | 0.00 | 0.00 | 49 | 1008.2 |
| 20260831174007 | 100 | 167 | 2.0 | 0.0 | 0.00 | 0.00 | 0.00 | 49 | 1008.2 |
| 20260831173859 | 100 | 132 | 2.0 | 0.0 | 0.00 | 0.00 | 0.00 | 49 | 1008.2 |
| 20260831173755 | 100 | 38 | 2.0 | 0.0 | 0.00 | 0.00 | 0.00 | 49 | 1008.2 |
| 20260831173717 | 100 | 123 | 2.0 | 0.0 | 0.00 | 0.00 | 0.00 | 49 | 1008.2 |
| 20260831173551 | 100 | 335 | 2.0 | 0.0 | 0.00 | 0.00 | 0.00 | 50 | 1008.2 |
| 20260831173453 | 100 | 164 | 2.0 | 0.0 | 0.00 | 0.00 | 0.00 | 49 | 1008.4 |
| 20260831173348 | 100 | 229 | 1.0 | 0.0 | 0.00 | 0.00 | 0.00 | 50 | 1008.4 |
| 20260831173309 | 100 | 213 | 1.0 | 0.0 | 0.00 | 0.00 | 0.00 | 50 | 1008.4 |
| 20260831173145 | 99 | 111 | 2.0 | 0.0 | 0.00 | 0.00 | 0.00 | 50 | 1008.4 |
| 20260831173100 | 99 | 184 | 2.0 | 0.0 | 0.00 | 0.00 | 0.00 | 50 | 1008.4 |
| 20260831173002 | 100 | 92 | 2.0 | 0.0 | 0.00 | 0.00 | 0.00 | 50 | 1008.4 |
| 20260831172902 | 100 | 247 | 3.0 | 0.0 | 0.00 | 0.00 | 0.00 | 50 | 1008.4 |
| 20260831172757 | 100 | 209 | 2.0 | 0.0 | 0.00 | 0.00 | 0.00 | 50 | 1008.4 |
| 20260831172658 | 99 | 244 | 2.0 | 0.0 | 0.00 | 0.00 | 0.00 | 50 | 1008.4 |
| 20260831172600 | 99 | 252 | 2.0 | 0.0 | 0.00 | 0.00 | 0.00 | 50 | 1008.4 |
| 20260831172514 | 99 | 169 | 2.0 | 0.0 | 0.00 | 0.00 | 0.00 | 50 | 1008.4 |
| 20260831172413 | 99 | 169 | 3.0 | 0.0 | 0.00 | 0.00 | 0.00 | 50 | 1008.4 |
| 20260831172248 | 99 | 199 | 2.0 | 0.0 | 0.00 | 0.00 | 0.00 | 50 | 1008.4 |
| 20260831172153 | 99 | 174 | 2.0 | 0.0 | 0.00 | 0.00 | 0.00 | 50 | 1008.4 |
| 20260831172105 | 99 | 210 | 2.0 | 0.0 | 0.00 | 0.00 | 0.00 | 50 | 1008.4 |
| 20260831172010 | 99 | 174 | 2.0 | 0.0 | 0.00 | 0.00 | 0.00 | 50 | 1008.6 |
| 20260831171907 | 99 | 224 | 2.0 | 0.0 | 0.00 | 0.00 | 0.00 | 51 | 1008.6 |
| 20260831171828 | 99 | 100 | 2.0 | 0.0 | 0.00 | 0.00 | 0.00 | 50 | 1008.6 |
| 20260831171703 | 99 | 76 | 2.0 | 0.0 | 0.00 | 0.00 | 0.00 | 50 | 1008.6 |
| 20260831171609 | 99 | 182 | 2.0 | 0.0 | 0.00 | 0.00 | 0.00 | 50 | 1008.6 |
| 20260831171500 | 99 | 61 | 2.0 | 0.0 | 0.00 | 0.00 | 0.00 | 50 | 1008.6 |
| 20260831171420 | 99 | 261 | 2.0 | 0.0 | 0.00 | 0.00 | 0.00 | 50 | 1008.6 |
| 20260831171252 | 99 | 171 | 2.0 | 0.0 | 0.00 | 0.00 | 0.00 | 51 | 1008.6 |
| 20260831171147 | 99 | 245 | 2.0 | 0.0 | 0.00 | 0.00 | 0.00 | 51 | 1008.6 |
| 20260831171051 | 99 | 170 | 2.0 | 0.0 | 0.00 | 0.00 | 0.00 | 51 | 1008.6 |
| 20260831171013 | 99 | 209 | 2.0 | 0.0 | 0.00 | 0.00 | 0.00 | 51 | 1008.6 |
| 20260831170904 | 99 | 186 | 2.0 | 0.0 | 0.00 | 0.00 | 0.00 | 50 | 1008.6 |
| 20260831170758 | 99 | 180 | 2.0 | 0.0 | 0.00 | 0.00 | 0.00 | 50 | 1008.6 |
| 20260831170719 | 99 | 163 | 2.0 | 0.0 | 0.00 | 0.00 | 0.00 | 50 | 1008.6 |
| 20260831170622 | 99 | 168 | 2.0 | 0.0 | 0.00 | 0.00 | 0.00 | 50 | 1008.6 |
| 20260831170459 | 99 | 257 | 2.0 | 0.0 | 0.00 | 0.00 | 0.00 | 51 | 1008.6 |
| 20260831170355 | 99 | 174 | 2.0 | 0.0 | 0.00 | 0.00 | 0.00 | 51 | 1008.6 |
| 20260831170255 | 99 | 191 | 2.0 | 0.0 | 0.00 | 0.00 | 0.00 | 50 | 1008.6 |
| 20260831170150 | 98 | 210 | 2.0 | 0.0 | 0.00 | 0.00 | 0.00 | 51 | 1008.6 |
| 20260831170051 | 98 | 227 | 2.0 | 0.0 | 0.00 | 0.00 | 0.00 | 52 | 1008.6 |
| 20260831165944 | 98 | 203 | 2.0 | 0.0 | 0.00 | 0.00 | 0.00 | 52 | 1008.6 |
| 20260831165907 | 98 | 202 | 1.0 | 0.0 | 0.00 | 0.00 | 0.00 | 52 | 1008.6 |
| 20260831165804 | 98 | 201 | 1.0 | 0.0 | 0.00 | 0.00 | 0.00 | 52 | 1008.6 |
| 20260831165705 | 98 | 171 | 1.0 | 0.0 | 0.00 | 0.00 | 0.00 | 52 | 1008.6 |
| 20260831165604 | 98 | 199 | 1.0 | 0.0 | 0.00 | 0.00 | 0.00 | 52 | 1008.6 |
| 20260831165531 | 98 | 150 | 1.0 | 0.0 | 0.00 | 0.00 | 0.00 | 52 | 1008.6 |
| 20260831165405 | 98 | 229 | 1.0 | 0.0 | 0.00 | 0.00 | 0.00 | 52 | 1008.6 |
| 20260831165327 | 98 | 152 | 1.0 | 0.0 | 0.00 | 0.00 | 0.00 | 53 | 1008.6 |
| 20260831165159 | 98 | 191 | 1.0 | 0.0 | 0.00 | 0.00 | 0.00 | 52 | 1008.6 |
| 20260831165050 | 98 | 221 | 1.0 | 0.0 | 0.00 | 0.00 | 0.00 | 53 | 1008.6 |
| 20260831164954 | 98 | 161 | 1.0 | 0.0 | 0.00 | 0.00 | 0.00 | 53 | 1008.7 |
| 20260831164846 | 98 | 171 | 1.0 | 0.0 | 0.00 | 0.00 | 0.00 | 53 | 1008.7 |
| 20260831164744 | 98 | 194 | 1.0 | 0.0 | 0.00 | 0.00 | 0.00 | 53 | 1008.7 |
| 20260831164647 | 98 | 161 | 1.0 | 0.0 | 0.00 | 0.00 | 0.00 | 53 | 1008.7 |
| 20260831164609 | 98 | 152 | 1.0 | 0.0 | 0.00 | 0.00 | 0.00 | 53 | 1008.7 |
| 20260831164502 | 97 | 158 | 1.0 | 0.0 | 0.00 | 0.00 | 0.00 | 53 | 1008.7 |
| 20260831164356 | 97 | 214 | 2.0 | 0.0 | 0.00 | 0.00 | 0.00 | 54 | 1008.7 |
| 20260831164300 | 97 | 204 | 2.0 | 0.0 | 0.00 | 0.00 | 0.00 | 54 | 1008.7 |
| 20260831164152 | 97 | 174 | 2.0 | 0.0 | 0.00 | 0.00 | 0.00 | 54 | 1008.7 |
| 20260831164048 | 97 | 168 | 3.0 | 0.0 | 0.00 | 0.00 | 0.00 | 54 | 1008.7 |
| 20260831163950 | 97 | 169 | 3.0 | 0.0 | 0.00 | 0.00 | 0.00 | 54 | 1008.7 |
| 20260831163901 | 96 | 192 | 3.0 | 0.0 | 0.00 | 0.00 | 0.00 | 55 | 1008.7 |
| 20260831163806 | 96 | 193 | 3.0 | 0.0 | 0.00 | 0.00 | 0.00 | 54 | 1008.7 |
| 20260831163659 | 96 | 228 | 3.0 | 0.0 | 0.00 | 0.00 | 0.00 | 55 | 1008.7 |
| 20260831163602 | 96 | 194 | 3.0 | 0.0 | 0.00 | 0.00 | 0.00 | 55 | 1008.7 |
| 20260831163454 | 96 | 183 | 3.0 | 0.0 | 0.00 | 0.00 | 0.00 | 54 | 1008.8 |
| 20260831163350 | 96 | 192 | 2.0 | 0.0 | 0.00 | 0.00 | 0.00 | 55 | 1008.8 |
| 20260831163257 | 96 | 207 | 2.0 | 0.0 | 0.00 | 0.00 | 0.00 | 55 | 1008.8 |
| 20260831163204 | 96 | 167 | 2.0 | 0.0 | 0.00 | 0.00 | 0.00 | 54 | 1008.8 |
| 20260831163054 | 96 | 134 | 2.0 | 0.0 | 0.00 | 0.00 | 0.00 | 55 | 1008.8 |
| 20260831162945 | 96 | 209 | 2.0 | 0.0 | 0.00 | 0.00 | 0.00 | 55 | 1008.8 |
| 20260831162913 | 96 | 203 | 2.0 | 0.0 | 0.00 | 0.00 | 0.00 | 55 | 1008.8 |
| 20260831162806 | 96 | 201 | 2.0 | 0.0 | 0.00 | 0.00 | 0.00 | 55 | 1008.8 |
| 20260831162708 | 96 | 172 | 2.0 | 0.0 | 0.00 | 0.00 | 0.00 | 55 | 1008.8 |
| 20260831162559 | 96 | 219 | 2.0 | 0.0 | 0.00 | 0.00 | 0.00 | 55 | 1008.8 |
| 20260831162505 | 96 | 12 | 2.0 | 0.0 | 0.00 | 0.00 | 0.00 | 55 | 1008.8 |
| 20260831162359 | 96 | 227 | 2.0 | 0.0 | 0.00 | 0.00 | 0.00 | 56 | 1008.8 |
| 20260831162323 | 96 | 192 | 2.0 | 0.0 | 0.00 | 0.00 | 0.00 | 56 | 1008.8 |
| 20260831162153 | 96 | 184 | 2.0 | 0.0 | 0.00 | 0.00 | 0.00 | 56 | 1008.8 |
| 20260831162053 | 95 | 240 | 2.0 | 0.0 | 0.00 | 0.00 | 0.00 | 57 | 1008.8 |
| 20260831161948 | 95 | 215 | 2.0 | 0.0 | 0.00 | 0.00 | 0.00 | 57 | 1008.8 |
| 20260831161910 | 95 | 165 | 2.0 | 0.0 | 0.00 | 0.00 | 0.00 | 57 | 1008.8 |
| 20260831161805 | 95 | 209 | 2.0 | 0.0 | 0.00 | 0.00 | 0.00 | 57 | 1008.8 |
| 20260831161710 | 95 | 208 | 1.0 | 0.0 | 0.00 | 0.00 | 0.00 | 57 | 1008.8 |
| 20260831161543 | 95 | 117 | 2.0 | 0.0 | 0.00 | 0.00 | 0.00 | 57 | 1008.8 |
| 20260831161458 | 95 | 232 | 2.0 | 0.0 | 0.00 | 0.00 | 0.00 | 57 | 1008.8 |
| 20260831161359 | 95 | 169 | 2.0 | 0.0 | 0.00 | 0.00 | 0.00 | 57 | 1008.8 |
| 20260831161311 | 95 | 214 | 2.0 | 0.0 | 0.00 | 0.00 | 0.00 | 57 | 1008.8 |
| 20260831161151 | 95 | 214 | 2.0 | 0.0 | 0.00 | 0.00 | 0.00 | 57 | 1008.8 |
| 20260831161045 | 95 | 191 | 2.0 | 0.0 | 0.00 | 0.00 | 0.00 | 57 | 1008.8 |
| 20260831160944 | 95 | 198 | 2.0 | 0.0 | 0.00 | 0.00 | 0.00 | 58 | 1008.8 |
| 20260831160848 | 95 | 223 | 2.0 | 0.0 | 0.00 | 0.00 | 0.00 | 57 | 1008.8 |
| 20260831160801 | 95 | 200 | 2.0 | 0.0 | 0.00 | 0.00 | 0.00 | 57 | 1008.8 |
| 20260831160702 | 94 | 163 | 2.0 | 0.0 | 0.00 | 0.00 | 0.00 | 58 | 1008.8 |
| 20260831160554 | 94 | 192 | 2.0 | 0.0 | 0.00 | 0.00 | 0.00 | 57 | 1008.8 |
| 20260831160449 | 94 | 172 | 2.0 | 0.0 | 0.00 | 0.00 | 0.00 | 57 | 1009.0 |
| 20260831160352 | 94 | 207 | 2.0 | 0.0 | 0.00 | 0.00 | 0.00 | 57 | 1009.0 |
| 20260831160250 | 94 | 199 | 2.0 | 0.0 | 0.00 | 0.00 | 0.00 | 57 | 1009.0 |
| 20260831160211 | 94 | 177 | 2.0 | 0.0 | 0.00 | 0.00 | 0.00 | 57 | 1009.0 |
| 20260831160046 | 94 | 234 | 2.0 | 0.0 | 0.00 | 0.00 | 0.00 | 58 | 1009.0 |
| 20260831160002 | 94 | 201 | 2.0 | 0.0 | 0.00 | 0.00 | 0.00 | 58 | 1009.0 |
| 20260831155845 | 94 | 99 | 2.0 | 0.0 | 0.00 | 0.00 | 0.00 | 59 | 1009.0 |
| 20260831155800 | 94 | 211 | 2.0 | 0.0 | 0.00 | 0.00 | 0.00 | 59 | 1009.0 |
| 20260831155700 | 94 | 204 | 2.0 | 0.0 | 0.00 | 0.00 | 0.00 | 59 | 1009.0 |
| 20260831155556 | 94 | 232 | 2.0 | 0.0 | 0.00 | 0.00 | 0.00 | 59 | 1009.0 |
| 20260831155454 | 94 | 208 | 2.0 | 0.0 | 0.00 | 0.00 | 0.00 | 59 | 1009.0 |
| 20260831155358 | 94 | 221 | 2.0 | 0.0 | 0.00 | 0.00 | 0.00 | 59 | 1009.0 |
| 20260831155251 | 94 | 203 | 2.0 | 0.0 | 0.00 | 0.00 | 0.00 | 59 | 1009.0 |
| 20260831155151 | 94 | 207 | 2.0 | 0.0 | 0.00 | 0.00 | 0.00 | 59 | 1009.0 |
| 20260831155112 | 94 | 218 | 2.0 | 0.0 | 0.00 | 0.00 | 0.00 | 59 | 1009.0 |
| 20260831155007 | 94 | 208 | 3.0 | 0.0 | 0.00 | 0.00 | 0.00 | 61 | 1009.0 |
| 20260831154928 | 93 | 74 | 3.0 | 0.0 | 0.00 | 0.00 | 0.00 | 61 | 1009.0 |
| 20260831154759 | 93 | 193 | 2.0 | 0.0 | 0.00 | 0.00 | 0.00 | 60 | 1009.0 |
| 20260831154654 | 93 | 167 | 2.0 | 0.0 | 0.00 | 0.00 | 0.00 | 60 | 1009.0 |
| 20260831154619 | 93 | 200 | 2.0 | 0.0 | 0.00 | 0.00 | 0.00 | 60 | 1009.0 |
| 20260831154540 | 93 | 181 | 3.0 | 0.0 | 0.00 | 0.00 | 0.00 | 60 | 1009.0 |
| 20260831154432 | 93 | 226 | 3.0 | 0.0 | 0.00 | 0.00 | 0.00 | 60 | 1009.0 |
| 20260831154310 | 93 | 208 | 2.0 | 0.0 | 0.00 | 0.00 | 0.00 | 60 | 1009.0 |
| 20260831154234 | 93 | 189 | 2.0 | 0.0 | 0.00 | 0.00 | 0.00 | 60 | 1009.0 |
| 20260831154108 | 93 | 169 | 2.0 | 0.0 | 0.00 | 0.00 | 0.00 | 61 | 1009.0 |
| 20260831154029 | 93 | 236 | 2.0 | 0.0 | 0.00 | 0.00 | 0.00 | 61 | 1009.0 |
| 20260831153859 | 93 | 184 | 3.0 | 0.0 | 0.00 | 0.00 | 0.00 | 61 | 1009.0 |
| 20260831153757 | 93 | 223 | 3.0 | 0.0 | 0.00 | 0.00 | 0.00 | 61 | 1009.0 |
| 20260831153702 | 92 | 178 | 3.0 | 0.0 | 0.00 | 0.00 | 0.00 | 61 | 1009.0 |
| 20260831153554 | 92 | 224 | 3.0 | 0.0 | 0.00 | 0.00 | 0.00 | 61 | 1009.0 |
| 20260831153445 | 92 | 252 | 3.0 | 0.0 | 0.00 | 0.00 | 0.00 | 61 | 1008.9 |
| 20260831153412 | 92 | 260 | 3.0 | 0.0 | 0.00 | 0.00 | 0.00 | 61 | 1008.9 |
| 20260831153314 | 92 | 223 | 3.0 | 0.0 | 0.00 | 0.00 | 0.00 | 62 | 1008.9 |
| 20260831153150 | 92 | 230 | 3.0 | 0.0 | 0.00 | 0.00 | 0.00 | 63 | 1008.9 |
| 20260831153110 | 92 | 207 | 2.0 | 0.0 | 0.00 | 0.00 | 0.00 | 63 | 1008.9 |
| 20260831152948 | 92 | 201 | 2.0 | 0.0 | 0.00 | 0.00 | 0.00 | 63 | 1008.9 |
| 20260831152901 | 92 | 177 | 2.0 | 0.0 | 0.00 | 0.00 | 0.00 | 63 | 1008.9 |
| 20260831152823 | 92 | 161 | 2.0 | 0.0 | 0.00 | 0.00 | 0.00 | 63 | 1008.9 |
| 20260831152653 | 92 | 200 | 2.0 | 0.0 | 0.00 | 0.00 | 0.00 | 63 | 1008.9 |
| 20260831152558 | 92 | 213 | 2.0 | 0.0 | 0.00 | 0.00 | 0.00 | 63 | 1008.9 |
| 20260831152448 | 92 | 170 | 2.0 | 0.0 | 0.00 | 0.00 | 0.00 | 64 | 1008.9 |
| 20260831152412 | 91 | 188 | 2.0 | 0.0 | 0.00 | 0.00 | 0.00 | 65 | 1008.9 |
| 20260831152312 | 91 | 198 | 3.0 | 0.0 | 0.00 | 0.00 | 0.00 | 65 | 1008.9 |
| 20260831152150 | 91 | 196 | 3.0 | 0.0 | 0.00 | 0.00 | 0.00 | 65 | 1008.9 |
| 20260831152111 | 91 | 216 | 3.0 | 0.0 | 0.00 | 0.00 | 0.00 | 65 | 1008.9 |
| 20260831151940 | 91 | 183 | 2.0 | 0.0 | 0.00 | 0.00 | 0.00 | 65 | 1008.8 |
| 20260831151846 | 91 | 212 | 2.0 | 0.0 | 0.00 | 0.00 | 0.00 | 65 | 1008.8 |
| 20260831151758 | 91 | 174 | 2.0 | 0.0 | 0.00 | 0.00 | 0.00 | 65 | 1008.8 |
| 20260831151705 | 91 | 194 | 2.0 | 0.0 | 0.00 | 0.00 | 0.00 | 65 | 1008.8 |
| 20260831151558 | 91 | 209 | 2.0 | 0.0 | 0.00 | 0.00 | 0.00 | 65 | 1008.8 |
| 20260831151451 | 91 | 204 | 2.0 | 0.0 | 0.00 | 0.00 | 0.00 | 65 | 1008.8 |
| 20260831151359 | 91 | 218 | 2.0 | 0.0 | 0.00 | 0.00 | 0.00 | 66 | 1008.8 |
| 20260831151254 | 91 | 190 | 2.0 | 0.0 | 0.00 | 0.00 | 0.00 | 66 | 1008.8 |
| 20260831151146 | 91 | 235 | 2.0 | 0.0 | 0.00 | 0.00 | 0.00 | 67 | 1008.8 |
| 20260831151110 | 91 | 180 | 3.0 | 0.0 | 0.00 | 0.00 | 0.00 | 67 | 1008.8 |
| 20260831151013 | 90 | 208 | 3.0 | 0.0 | 0.00 | 0.00 | 0.00 | 67 | 1008.8 |
| 20260831150845 | 90 | 205 | 3.0 | 0.0 | 0.00 | 0.00 | 0.00 | 67 | 1008.8 |
| 20260831150800 | 90 | 172 | 3.0 | 0.0 | 0.00 | 0.00 | 0.00 | 67 | 1008.8 |
| 20260831150721 | 90 | 200 | 4.0 | 0.0 | 0.00 | 0.00 | 0.00 | 67 | 1008.8 |
| 20260831150600 | 90 | 173 | 4.0 | 0.0 | 0.00 | 0.00 | 0.00 | 67 | 1008.8 |
| 20260831150522 | 90 | 220 | 3.0 | 0.0 | 0.00 | 0.00 | 0.00 | 67 | 1008.9 |
| 20260831150352 | 90 | 221 | 4.0 | 0.0 | 0.00 | 0.00 | 0.00 | 67 | 1008.9 |
| 20260831150253 | 90 | 210 | 4.0 | 0.0 | 0.00 | 0.00 | 0.00 | 67 | 1008.9 |
| 20260831150148 | 90 | 187 | 4.0 | 0.0 | 0.00 | 0.00 | 0.00 | 67 | 1008.9 |
| 20260831150110 | 90 | 165 | 3.0 | 0.0 | 0.00 | 0.00 | 0.00 | 68 | 1008.9 |
| 20260831150002 | 90 | 231 | 3.0 | 0.0 | 0.00 | 0.00 | 0.00 | 68 | 1008.9 |
| 20260831145907 | 90 | 207 | 4.0 | 0.0 | 0.00 | 0.00 | 0.00 | 68 | 1008.9 |
| 20260831145802 | 90 | 211 | 3.0 | 0.0 | 0.00 | 0.00 | 0.00 | 68 | 1008.9 |
| 20260831145707 | 90 | 173 | 3.0 | 0.0 | 0.00 | 0.00 | 0.00 | 68 | 1008.9 |
| 20260831145603 | 90 | 162 | 3.0 | 0.0 | 0.00 | 0.00 | 0.00 | 68 | 1008.9 |
| 20260831145457 | 90 | 209 | 3.0 | 0.0 | 0.00 | 0.00 | 0.00 | 68 | 1008.9 |
| 20260831145421 | 89 | 162 | 3.0 | 0.0 | 0.00 | 0.00 | 0.00 | 68 | 1008.9 |
| 20260831145255 | 89 | 173 | 3.0 | 0.0 | 0.00 | 0.00 | 0.00 | 68 | 1008.9 |
| 20260831145156 | 89 | 135 | 3.0 | 0.0 | 0.00 | 0.00 | 0.00 | 69 | 1008.9 |
| 20260831145055 | 89 | 165 | 3.0 | 0.0 | 0.00 | 0.00 | 0.00 | 69 | 1008.9 |
| 20260831144946 | 89 | 217 | 2.0 | 0.0 | 0.00 | 0.00 | 0.00 | 69 | 1008.8 |
| 20260831144853 | 89 | 207 | 2.0 | 0.0 | 0.00 | 0.00 | 0.00 | 70 | 1008.8 |
| 20260831144748 | 89 | 166 | 2.0 | 0.0 | 0.00 | 0.00 | 0.00 | 70 | 1008.8 |
| 20260831144709 | 89 | 181 | 2.0 | 0.0 | 0.00 | 0.00 | 0.00 | 70 | 1008.8 |
| 20260831144600 | 89 | 193 | 3.0 | 0.0 | 0.00 | 0.00 | 0.00 | 70 | 1008.8 |
| 20260831144452 | 89 | 153 | 3.0 | 0.0 | 0.00 | 0.00 | 0.00 | 70 | 1008.8 |
| 20260831144400 | 89 | 198 | 3.0 | 0.0 | 0.00 | 0.00 | 0.00 | 71 | 1008.8 |
| 20260831144312 | 89 | 177 | 2.0 | 0.0 | 0.00 | 0.00 | 0.00 | 71 | 1008.8 |
| 20260831144213 | 89 | 191 | 2.0 | 0.0 | 0.00 | 0.00 | 0.00 | 71 | 1008.8 |
| 20260831144051 | 88 | 187 | 2.0 | 0.0 | 0.00 | 0.00 | 0.00 | 71 | 1008.8 |
| 20260831143955 | 88 | 177 | 2.0 | 0.0 | 0.00 | 0.00 | 0.00 | 71 | 1008.8 |
| 20260831143847 | 88 | 198 | 2.0 | 0.0 | 0.00 | 0.00 | 0.00 | 71 | 1008.8 |
| 20260831143807 | 88 | 188 | 2.0 | 0.0 | 0.00 | 0.00 | 0.00 | 71 | 1008.8 |
| 20260831143706 | 88 | 165 | 1.0 | 0.0 | 0.00 | 0.00 | 0.00 | 72 | 1008.8 |
| 20260831143630 | 88 | 159 | 1.0 | 0.0 | 0.00 | 0.00 | 0.00 | 72 | 1008.8 |
| 20260831143446 | 88 | 164 | 1.0 | 0.0 | 0.00 | 0.00 | 0.00 | 72 | 1008.9 |
| 20260831143350 | 88 | 164 | 1.0 | 0.0 | 0.00 | 0.00 | 0.00 | 72 | 1008.9 |
| 20260831143251 | 88 | 165 | 1.0 | 0.0 | 0.00 | 0.00 | 0.00 | 72 | 1008.9 |
| 20260831143202 | 88 | 163 | 1.0 | 0.0 | 0.00 | 0.00 | 0.00 | 72 | 1008.9 |
| 20260831143048 | 88 | 171 | 1.0 | 0.0 | 0.00 | 0.00 | 0.00 | 72 | 1008.9 |
| 20260831143003 | 88 | 188 | 1.0 | 0.0 | 0.00 | 0.00 | 0.00 | 73 | 1008.9 |
| 20260831142906 | 88 | 198 | 1.0 | 0.0 | 0.00 | 0.00 | 0.00 | 73 | 1008.9 |
| 20260831142825 | 88 | 208 | 1.0 | 0.0 | 0.00 | 0.00 | 0.00 | 73 | 1008.9 |
| 20260831142706 | 88 | 180 | 1.0 | 0.0 | 0.00 | 0.00 | 0.00 | 73 | 1008.9 |
| 20260831142618 | 88 | 221 | 1.0 | 0.0 | 0.00 | 0.00 | 0.00 | 73 | 1008.9 |
| 20260831142502 | 88 | 179 | 1.0 | 0.0 | 0.00 | 0.00 | 0.00 | 73 | 1008.9 |
| 20260831142354 | 88 | 170 | 1.0 | 0.0 | 0.00 | 0.00 | 0.00 | 73 | 1008.9 |
| 20260831142251 | 88 | 233 | 2.0 | 0.0 | 0.00 | 0.00 | 0.00 | 73 | 1008.9 |
| 20260831142152 | 88 | 175 | 2.0 | 0.0 | 0.00 | 0.00 | 0.00 | 74 | 1008.9 |
| 20260831142104 | 88 | 185 | 2.0 | 0.0 | 0.00 | 0.00 | 0.00 | 74 | 1008.9 |
| 20260831142004 | 88 | 189 | 1.0 | 0.0 | 0.00 | 0.00 | 0.00 | 74 | 1008.8 |
| 20260831141858 | 88 | 181 | 1.0 | 0.0 | 0.00 | 0.00 | 0.00 | 74 | 1008.8 |
| 20260831141803 | 88 | 198 | 1.0 | 0.0 | 0.00 | 0.00 | 0.00 | 74 | 1008.8 |
| 20260831141659 | 88 | 222 | 1.0 | 0.0 | 0.00 | 0.00 | 0.00 | 74 | 1008.8 |
| 20260831141550 | 88 | 186 | 1.0 | 0.0 | 0.00 | 0.00 | 0.00 | 74 | 1008.8 |
| 20260831141454 | 88 | 234 | 2.0 | 0.0 | 0.00 | 0.00 | 0.00 | 74 | 1008.8 |
| 20260831141347 | 88 | 188 | 2.0 | 0.0 | 0.00 | 0.00 | 0.00 | 74 | 1008.8 |
| 20260831141311 | 88 | 163 | 1.0 | 0.0 | 0.00 | 0.00 | 0.00 | 74 | 1008.8 |
| 20260831141146 | 87 | 164 | 1.0 | 0.0 | 0.00 | 0.00 | 0.00 | 74 | 1008.8 |
| 20260831141114 | 87 | 207 | 1.0 | 0.0 | 0.00 | 0.00 | 0.00 | 74 | 1008.8 |
| 20260831141005 | 87 | 190 | 1.0 | 0.0 | 0.00 | 0.00 | 0.00 | 75 | 1008.8 |
| 20260831140857 | 87 | 196 | 1.0 | 0.0 | 0.00 | 0.00 | 0.00 | 75 | 1008.8 |
| 20260831140802 | 87 | 205 | 2.0 | 0.0 | 0.00 | 0.00 | 0.00 | 75 | 1008.8 |
| 20260831140653 | 87 | 171 | 1.0 | 0.0 | 0.00 | 0.00 | 0.00 | 75 | 1008.8 |
| 20260831140549 | 87 | 181 | 2.0 | 0.0 | 0.00 | 0.00 | 0.00 | 75 | 1008.8 |
| 20260831140511 | 87 | 208 | 2.0 | 0.0 | 0.00 | 0.00 | 0.00 | 75 | 1008.7 |
| 20260831140347 | 87 | 214 | 2.0 | 0.0 | 0.00 | 0.00 | 0.00 | 75 | 1008.7 |
| 20260831140241 | 87 | 227 | 1.0 | 0.0 | 0.00 | 0.00 | 0.00 | 75 | 1008.7 |
| 20260831140208 | 86 | 205 | 1.0 | 0.0 | 0.00 | 0.00 | 0.00 | 76 | 1008.7 |
| 20260831140108 | 86 | 195 | 1.0 | 0.0 | 0.00 | 0.00 | 0.00 | 76 | 1008.7 |
| 20260831140001 | 86 | 207 | 1.0 | 0.0 | 0.00 | 0.00 | 0.00 | 76 | 1008.7 |
| 20260831135923 | 86 | 203 | 2.0 | 0.0 | 0.00 | 0.00 | 0.00 | 76 | 1008.7 |
| 20260831135800 | 86 | 160 | 1.0 | 0.0 | 0.00 | 0.00 | 0.00 | 76 | 1008.7 |
| 20260831135652 | 86 | 224 | 1.0 | 0.0 | 0.00 | 0.00 | 0.00 | 76 | 1008.7 |
| 20260831135557 | 86 | 201 | 1.0 | 0.0 | 0.00 | 0.00 | 0.00 | 76 | 1008.7 |
| 20260831135450 | 86 | 216 | 1.0 | 0.0 | 0.00 | 0.00 | 0.00 | 76 | 1008.7 |
| 20260831135412 | 86 | 148 | 1.0 | 0.0 | 0.00 | 0.00 | 0.00 | 76 | 1008.7 |
| 20260831135243 | 86 | 168 | 1.0 | 0.0 | 0.00 | 0.00 | 0.00 | 76 | 1008.7 |
| 20260831135202 | 86 | 136 | 1.0 | 0.0 | 0.00 | 0.00 | 0.00 | 77 | 1008.7 |
| 20260831135106 | 86 | 215 | 1.0 | 0.0 | 0.00 | 0.00 | 0.00 | 77 | 1008.7 |
| 20260831135025 | 86 | 218 | 1.0 | 0.0 | 0.00 | 0.00 | 0.00 | 77 | 1008.6 |
| 20260831134908 | 86 | 215 | 1.0 | 0.0 | 0.00 | 0.00 | 0.00 | 77 | 1008.6 |
| 20260831134741 | 85 | 155 | 1.0 | 0.0 | 0.00 | 0.00 | 0.00 | 78 | 1008.6 |
| 20260831134709 | 85 | 164 | 1.0 | 0.0 | 0.00 | 0.00 | 0.00 | 78 | 1008.6 |
| 20260831134607 | 85 | 208 | 1.0 | 0.0 | 0.00 | 0.00 | 0.00 | 78 | 1008.6 |
| 20260831134529 | 85 | 190 | 1.0 | 0.0 | 0.00 | 0.00 | 0.00 | 78 | 1008.6 |
| 20260831134420 | 85 | 177 | 1.0 | 0.0 | 0.00 | 0.00 | 0.00 | 78 | 1008.6 |
| 20260831134301 | 85 | 209 | 1.0 | 0.0 | 0.00 | 0.00 | 0.00 | 78 | 1008.6 |
| 20260831134153 | 85 | 199 | 1.0 | 0.0 | 0.00 | 0.00 | 0.00 | 78 | 1008.6 |
| 20260831134052 | 85 | 211 | 1.0 | 0.0 | 0.00 | 0.00 | 0.00 | 79 | 1008.6 |
| 20260831133953 | 85 | 154 | 1.0 | 0.0 | 0.00 | 0.00 | 0.00 | 79 | 1008.6 |
| 20260831133848 | 85 | 165 | 1.0 | 0.0 | 0.00 | 0.00 | 0.00 | 79 | 1008.6 |
| 20260831133813 | 85 | 164 | 1.0 | 0.0 | 0.00 | 0.00 | 0.00 | 79 | 1008.6 |
| 20260831133644 | 84 | 186 | 1.0 | 0.0 | 0.00 | 0.00 | 0.00 | 79 | 1008.6 |
| 20260831133600 | 84 | 223 | 0.0 | 0.0 | 0.00 | 0.00 | 0.00 | 79 | 1008.6 |
| 20260831133502 | 84 | 187 | 0.0 | 0.0 | 0.00 | 0.00 | 0.00 | 79 | 1008.2 |
| 20260831133401 | 84 | 190 | 0.0 | 0.0 | 0.00 | 0.00 | 0.00 | 79 | 1008.2 |
| 20260831133302 | 84 | 176 | 0.0 | 0.0 | 0.00 | 0.00 | 0.00 | 79 | 1008.2 |
| 20260831133220 | 84 | 215 | 0.0 | 0.0 | 0.00 | 0.00 | 0.00 | 80 | 1008.2 |
| 20260831133121 | 84 | 161 | 0.0 | 0.0 | 0.00 | 0.00 | 0.00 | 80 | 1008.2 |
| 20260831132955 | 84 | 213 | 0.0 | 0.0 | 0.00 | 0.00 | 0.00 | 80 | 1008.2 |
| 20260831132902 | 84 | 194 | 0.0 | 0.0 | 0.00 | 0.00 | 0.00 | 80 | 1008.2 |
| 20260831132758 | 84 | 157 | 0.0 | 0.0 | 0.00 | 0.00 | 0.00 | 80 | 1008.2 |
| 20260831132650 | 84 | 205 | 0.0 | 0.0 | 0.00 | 0.00 | 0.00 | 80 | 1008.2 |
| 20260831132558 | 84 | 201 | 0.0 | 0.0 | 0.00 | 0.00 | 0.00 | 80 | 1008.2 |
| 20260831132454 | 84 | 216 | 0.0 | 0.0 | 0.00 | 0.00 | 0.00 | 80 | 1008.2 |
| 20260831132354 | 84 | 228 | 0.0 | 0.0 | 0.00 | 0.00 | 0.00 | 80 | 1008.2 |
| 20260831132307 | 83 | 87 | 0.0 | 0.0 | 0.00 | 0.00 | 0.00 | 80 | 1008.2 |
| 20260831132210 | 83 | 87 | 0.0 | 0.0 | 0.00 | 0.00 | 0.00 | 80 | 1008.2 |
| 20260831132107 | 83 | 203 | 0.0 | 0.0 | 0.00 | 0.00 | 0.00 | 81 | 1008.2 |
| 20260831132002 | 83 | 185 | 0.0 | 0.0 | 0.00 | 0.00 | 0.00 | 81 | 1008.2 |
| 20260831131856 | 83 | 177 | 0.0 | 0.0 | 0.00 | 0.00 | 0.00 | 81 | 1008.2 |
| 20260831131805 | 83 | 177 | 0.0 | 0.0 | 0.00 | 0.00 | 0.00 | 81 | 1008.2 |
| 20260831131657 | 83 | 262 | 0.0 | 0.0 | 0.00 | 0.00 | 0.00 | 81 | 1008.2 |
| 20260831131550 | 83 | 211 | 0.0 | 0.0 | 0.00 | 0.00 | 0.00 | 81 | 1008.2 |
| 20260831131514 | 83 | 211 | 0.0 | 0.0 | 0.00 | 0.00 | 0.00 | 81 | 1008.2 |
| 20260831131420 | 83 | 188 | 0.0 | 0.0 | 0.00 | 0.00 | 0.00 | 81 | 1008.2 |
| 20260831131249 | 82 | 167 | 0.0 | 0.0 | 0.00 | 0.00 | 0.00 | 81 | 1008.2 |
| 20260831131214 | 82 | 167 | 0.0 | 0.0 | 0.00 | 0.00 | 0.00 | 81 | 1008.2 |
| 20260831131046 | 82 | 190 | 0.0 | 0.0 | 0.00 | 0.00 | 0.00 | 81 | 1008.2 |
| 20260831130944 | 82 | 180 | 0.0 | 0.0 | 0.00 | 0.00 | 0.00 | 81 | 1008.2 |
| 20260831130909 | 82 | 227 | 0.0 | 0.0 | 0.00 | 0.00 | 0.00 | 82 | 1008.2 |
| 20260831130831 | 82 | 158 | 0.0 | 0.0 | 0.00 | 0.00 | 0.00 | 82 | 1008.2 |
| 20260831130645 | 82 | 232 | 0.0 | 0.0 | 0.00 | 0.00 | 0.00 | 82 | 1008.2 |
| 20260831130557 | 82 | 205 | 0.0 | 0.0 | 0.00 | 0.00 | 0.00 | 82 | 1008.2 |
| 20260831130505 | 82 | 203 | 0.0 | 0.0 | 0.00 | 0.00 | 0.00 | 82 | 1008.2 |
| 20260831130356 | 82 | 167 | 0.0 | 0.0 | 0.00 | 0.00 | 0.00 | 82 | 1008.2 |
| 20260831130249 | 82 | 196 | 0.0 | 0.0 | 0.00 | 0.00 | 0.00 | 82 | 1008.2 |
| 20260831130154 | 82 | 163 | 0.0 | 0.0 | 0.00 | 0.00 | 0.00 | 82 | 1008.2 |
| 20260831130049 | 82 | 170 | 0.0 | 0.0 | 0.00 | 0.00 | 0.00 | 82 | 1008.2 |
| 20260831130009 | 82 | 184 | 0.0 | 0.0 | 0.00 | 0.00 | 0.00 | 82 | 1008.2 |
| 20260831125846 | 82 | 227 | 0.0 | 0.0 | 0.00 | 0.00 | 0.00 | 82 | 1008.2 |
| 20260831125749 | 82 | 231 | 0.0 | 0.0 | 0.00 | 0.00 | 0.00 | 82 | 1008.2 |
| 20260831125707 | 82 | 178 | 0.0 | 0.0 | 0.00 | 0.00 | 0.00 | 82 | 1008.2 |
| 20260831125610 | 82 | 175 | 0.0 | 0.0 | 0.00 | 0.00 | 0.00 | 82 | 1008.2 |
| 20260831125532 | 82 | 171 | 0.0 | 0.0 | 0.00 | 0.00 | 0.00 | 82 | 1008.2 |
| 20260831125350 | 82 | 190 | 0.0 | 0.0 | 0.00 | 0.00 | 0.00 | 82 | 1008.2 |
| 20260831125306 | 82 | 194 | 0.0 | 0.0 | 0.00 | 0.00 | 0.00 | 82 | 1008.2 |
| 20260831125205 | 81 | 192 | 0.0 | 0.0 | 0.00 | 0.00 | 0.00 | 82 | 1008.2 |
| 20260831125056 | 81 | 192 | 0.0 | 0.0 | 0.00 | 0.00 | 0.00 | 82 | 1008.2 |
| 20260831125017 | 81 | 236 | 0.0 | 0.0 | 0.00 | 0.00 | 0.00 | 82 | 1008.0 |
| 20260831124849 | 81 | 170 | 0.0 | 0.0 | 0.00 | 0.00 | 0.00 | 82 | 1008.0 |
| 20260831124814 | 81 | 240 | 0.0 | 0.0 | 0.00 | 0.00 | 0.00 | 82 | 1008.0 |
| 20260831124736 | 81 | 171 | 0.0 | 0.0 | 0.00 | 0.00 | 0.00 | 82 | 1008.0 |
| 20260831124606 | 81 | 158 | 0.0 | 0.0 | 0.00 | 0.00 | 0.00 | 82 | 1008.0 |
| 20260831124450 | 81 | 193 | 0.0 | 0.0 | 0.00 | 0.00 | 0.00 | 82 | 1008.0 |
| 20260831124411 | 81 | 193 | 0.0 | 0.0 | 0.00 | 0.00 | 0.00 | 82 | 1008.0 |
| 20260831124302 | 81 | 178 | 0.0 | 0.0 | 0.00 | 0.00 | 0.00 | 82 | 1008.0 |
| 20260831124207 | 81 | 165 | 0.0 | 0.0 | 0.00 | 0.00 | 0.00 | 82 | 1008.0 |
| 20260831124057 | 81 | 165 | 0.0 | 0.0 | 0.00 | 0.00 | 0.00 | 82 | 1008.0 |
| 20260831123959 | 81 | 165 | 0.0 | 0.0 | 0.00 | 0.00 | 0.00 | 82 | 1008.0 |
| 20260831123853 | 81 | 153 | 0.0 | 0.0 | 0.00 | 0.00 | 0.00 | 82 | 1008.0 |
| 20260831123750 | 81 | 196 | 0.0 | 0.0 | 0.00 | 0.00 | 0.00 | 82 | 1008.0 |
| 20260831123713 | 81 | 196 | 0.0 | 0.0 | 0.00 | 0.00 | 0.00 | 82 | 1008.0 |
| 20260831123551 | 81 | 194 | 0.0 | 0.0 | 0.00 | 0.00 | 0.00 | 82 | 1008.0 |
| 20260831123515 | 81 | 186 | 0.0 | 0.0 | 0.00 | 0.00 | 0.00 | 82 | 1007.6 |
| 20260831123419 | 81 | 204 | 0.0 | 0.0 | 0.00 | 0.00 | 0.00 | 82 | 1007.6 |
| 20260831123250 | 81 | 245 | 0.0 | 0.0 | 0.00 | 0.00 | 0.00 | 82 | 1007.6 |
| 20260831123212 | 81 | 245 | 0.0 | 0.0 | 0.00 | 0.00 | 0.00 | 82 | 1007.6 |
| 20260831123046 | 81 | 197 | 0.0 | 0.0 | 0.00 | 0.00 | 0.00 | 82 | 1007.6 |
| 20260831123004 | 81 | 180 | 0.0 | 0.0 | 0.00 | 0.00 | 0.00 | 82 | 1007.6 |
| 20260831122926 | 81 | 180 | 0.0 | 0.0 | 0.00 | 0.00 | 0.00 | 82 | 1007.6 |
| 20260831122805 | 81 | 173 | 0.0 | 0.0 | 0.00 | 0.00 | 0.00 | 82 | 1007.6 |
| 20260831122647 | 81 | 200 | 0.0 | 0.0 | 0.00 | 0.00 | 0.00 | 82 | 1007.6 |
| 20260831122558 | 81 | 196 | 0.0 | 0.0 | 0.00 | 0.00 | 0.00 | 82 | 1007.6 |
| 20260831122520 | 81 | 196 | 0.0 | 0.0 | 0.00 | 0.00 | 0.00 | 82 | 1007.6 |
| 20260831122351 | 81 | 206 | 0.0 | 0.0 | 0.00 | 0.00 | 0.00 | 82 | 1007.6 |
| 20260831122254 | 81 | 192 | 0.0 | 0.0 | 0.00 | 0.00 | 0.00 | 82 | 1007.6 |
| 20260831122216 | 81 | 265 | 0.0 | 0.0 | 0.00 | 0.00 | 0.00 | 82 | 1007.6 |
| 20260831122105 | 81 | 142 | 0.0 | 0.0 | 0.00 | 0.00 | 0.00 | 82 | 1007.7 |
| 20260831122007 | 81 | 173 | 0.0 | 0.0 | 0.00 | 0.00 | 0.00 | 82 | 1007.6 |
| 20260831121842 | 81 | 167 | 0.0 | 0.0 | 0.00 | 0.00 | 0.00 | 82 | 1007.6 |
| 20260831121757 | 81 | 198 | 0.0 | 0.0 | 0.00 | 0.00 | 0.00 | 82 | 1007.6 |
| 20260831121701 | 81 | 133 | 0.0 | 0.0 | 0.00 | 0.00 | 0.00 | 82 | 1007.6 |
| 20260831121555 | 81 | 205 | 0.0 | 0.0 | 0.00 | 0.00 | 0.00 | 82 | 1007.6 |
| 20260831121517 | 81 | 193 | 0.0 | 0.0 | 0.00 | 0.00 | 0.00 | 82 | 1007.6 |
| 20260831121346 | 81 | 193 | 0.0 | 0.0 | 0.00 | 0.00 | 0.00 | 82 | 1007.6 |
| 20260831121249 | 81 | 221 | 0.0 | 0.0 | 0.00 | 0.00 | 0.00 | 82 | 1007.6 |
| 20260831121143 | 81 | 217 | 0.0 | 0.0 | 0.00 | 0.00 | 0.00 | 82 | 1007.6 |
| 20260831121055 | 81 | 217 | 0.0 | 0.0 | 0.00 | 0.00 | 0.00 | 82 | 1007.6 |
| 20260831120949 | 81 | 217 | 0.0 | 0.0 | 0.00 | 0.00 | 0.00 | 82 | 1007.6 |
| 20260831120841 | 81 | 217 | 0.0 | 0.0 | 0.00 | 0.00 | 0.00 | 82 | 1007.6 |
| 20260831120808 | 81 | 217 | 0.0 | 0.0 | 0.00 | 0.00 | 0.00 | 82 | 1007.6 |
| 20260831120701 | 81 | 217 | 0.0 | 0.0 | 0.00 | 0.00 | 0.00 | 82 | 1007.6 |
| 20260831120622 | 81 | 217 | 0.0 | 0.0 | 0.00 | 0.00 | 0.00 | 82 | 1007.6 |
| 20260831120452 | 81 | 204 | 0.0 | 0.0 | 0.00 | 0.00 | 0.00 | 82 | 1007.5 |
| 20260831120401 | 81 | 204 | 0.0 | 0.0 | 0.00 | 0.00 | 0.00 | 82 | 1007.5 |
| 20260831120256 | 81 | 173 | 0.0 | 0.0 | 0.00 | 0.00 | 0.00 | 82 | 1007.5 |
| 20260831120148 | 81 | 169 | 0.0 | 0.0 | 0.00 | 0.00 | 0.00 | 82 | 1007.5 |
| 20260831120113 | 81 | 169 | 0.0 | 0.0 | 0.00 | 0.00 | 0.00 | 82 | 1007.5 |
| 20260831120036 | 81 | 169 | 0.0 | 0.0 | 0.00 | 0.00 | 0.00 | 82 | 1007.5 |
| 20260831115847 | 81 | 169 | 0.0 | 0.0 | 0.00 | 0.00 | 0.00 | 82 | 1007.5 |
| 20260831115800 | 81 | 169 | 0.0 | 0.0 | 0.00 | 0.00 | 0.00 | 82 | 1007.5 |
| 20260831115700 | 81 | 169 | 0.0 | 0.0 | 0.00 | 0.00 | 0.00 | 82 | 1007.5 |
| 20260831115556 | 81 | 169 | 0.0 | 0.0 | 0.00 | 0.00 | 0.00 | 82 | 1007.5 |
| 20260831115516 | 81 | 209 | 0.0 | 0.0 | 0.00 | 0.00 | 0.00 | 82 | 1007.5 |
| 20260831115350 | 81 | 209 | 0.0 | 0.0 | 0.00 | 0.00 | 0.00 | 82 | 1007.5 |
| 20260831115252 | 81 | 208 | 0.0 | 0.0 | 0.00 | 0.00 | 0.00 | 82 | 1007.5 |
| 20260831115206 | 81 | 227 | 0.0 | 0.0 | 0.00 | 0.00 | 0.00 | 82 | 1007.5 |
| 20260831115106 | 82 | 192 | 0.0 | 0.0 | 0.00 | 0.00 | 0.00 | 82 | 1007.5 |
| 20260831114958 | 82 | 192 | 0.0 | 0.0 | 0.00 | 0.00 | 0.00 | 82 | 1007.3 |
| 20260831114853 | 82 | 232 | 0.0 | 0.0 | 0.00 | 0.00 | 0.00 | 82 | 1007.3 |
| 20260831114758 | 82 | 232 | 0.0 | 0.0 | 0.00 | 0.00 | 0.00 | 82 | 1007.3 |
| 20260831114653 | 82 | 225 | 0.0 | 0.0 | 0.00 | 0.00 | 0.00 | 82 | 1007.3 |
| 20260831114546 | 82 | 225 | 0.0 | 0.0 | 0.00 | 0.00 | 0.00 | 81 | 1007.3 |
| 20260831114448 | 82 | 209 | 0.0 | 0.0 | 0.00 | 0.00 | 0.00 | 81 | 1007.3 |
| 20260831114400 | 82 | 194 | 0.0 | 0.0 | 0.00 | 0.00 | 0.00 | 81 | 1007.3 |
| 20260831114259 | 82 | 201 | 0.0 | 0.0 | 0.00 | 0.00 | 0.00 | 82 | 1007.3 |
| 20260831114154 | 82 | 195 | 0.0 | 0.0 | 0.00 | 0.00 | 0.00 | 81 | 1007.3 |
| 20260831114103 | 82 | 198 | 0.0 | 0.0 | 0.00 | 0.00 | 0.00 | 82 | 1007.3 |
| 20260831114004 | 82 | 198 | 0.0 | 0.0 | 0.00 | 0.00 | 0.00 | 82 | 1007.3 |
| 20260831113854 | 82 | 208 | 0.0 | 0.0 | 0.00 | 0.00 | 0.00 | 82 | 1007.3 |
| 20260831113750 | 82 | 173 | 0.0 | 0.0 | 0.00 | 0.00 | 0.00 | 81 | 1007.3 |
| 20260831113712 | 82 | 208 | 0.0 | 0.0 | 0.00 | 0.00 | 0.00 | 81 | 1007.3 |
| 20260831113543 | 82 | 208 | 0.0 | 0.0 | 0.00 | 0.00 | 0.00 | 81 | 1007.5 |
| 20260831113508 | 82 | 209 | 0.0 | 0.0 | 0.00 | 0.00 | 0.00 | 81 | 1007.5 |
| 20260831113402 | 82 | 208 | 0.0 | 0.0 | 0.00 | 0.00 | 0.00 | 82 | 1007.5 |
| 20260831113328 | 82 | 208 | 0.0 | 0.0 | 0.00 | 0.00 | 0.00 | 81 | 1007.5 |
| 20260831113202 | 82 | 209 | 0.0 | 0.0 | 0.00 | 0.00 | 0.00 | 82 | 1007.5 |
| 20260831113129 | 82 | 208 | 0.0 | 0.0 | 0.00 | 0.00 | 0.00 | 81 | 1007.5 |
| 20260831113024 | 82 | 210 | 0.0 | 0.0 | 0.00 | 0.00 | 0.00 | 82 | 1007.5 |
| 20260831112904 | 82 | 210 | 0.0 | 0.0 | 0.00 | 0.00 | 0.00 | 82 | 1007.5 |
| 20260831112758 | 82 | 210 | 0.0 | 0.0 | 0.00 | 0.00 | 0.00 | 82 | 1007.5 |
| 20260831112720 | 82 | 210 | 0.0 | 0.0 | 0.00 | 0.00 | 0.00 | 82 | 1007.5 |
| 20260831112550 | 82 | 210 | 0.0 | 0.0 | 0.00 | 0.00 | 0.00 | 82 | 1007.5 |
| 20260831112458 | 82 | 210 | 0.0 | 0.0 | 0.00 | 0.00 | 0.00 | 82 | 1007.5 |
| 20260831112355 | 82 | 173 | 0.0 | 0.0 | 0.00 | 0.00 | 0.00 | 82 | 1007.5 |
| 20260831112317 | 82 | 199 | 0.0 | 0.0 | 0.00 | 0.00 | 0.00 | 82 | 1007.5 |
| 20260831112145 | 82 | 166 | 0.0 | 0.0 | 0.00 | 0.00 | 0.00 | 82 | 1007.5 |
| 20260831112112 | 82 | 166 | 0.0 | 0.0 | 0.00 | 0.00 | 0.00 | 82 | 1007.5 |
| 20260831112033 | 82 | 188 | 0.0 | 0.0 | 0.00 | 0.00 | 0.00 | 82 | 1007.5 |
| 20260831111843 | 82 | 205 | 0.0 | 0.0 | 0.00 | 0.00 | 0.00 | 82 | 1007.5 |
| 20260831111759 | 82 | 185 | 0.0 | 0.0 | 0.00 | 0.00 | 0.00 | 82 | 1007.5 |
| 20260831111704 | 82 | 174 | 0.0 | 0.0 | 0.00 | 0.00 | 0.00 | 82 | 1007.5 |
| 20260831111600 | 82 | 206 | 0.0 | 0.0 | 0.00 | 0.00 | 0.00 | 82 | 1007.5 |
| 20260831111456 | 82 | 222 | 0.0 | 0.0 | 0.00 | 0.00 | 0.00 | 81 | 1007.5 |
| 20260831111358 | 82 | 210 | 0.0 | 0.0 | 0.00 | 0.00 | 0.00 | 82 | 1007.5 |
| 20260831111251 | 82 | 176 | 0.0 | 0.0 | 0.00 | 0.00 | 0.00 | 82 | 1007.5 |
| 20260831111212 | 82 | 178 | 0.0 | 0.0 | 0.00 | 0.00 | 0.00 | 82 | 1007.5 |
| 20260831111042 | 82 | 204 | 0.0 | 0.0 | 0.00 | 0.00 | 0.00 | 82 | 1007.5 |
| 20260831110957 | 82 | 223 | 0.0 | 0.0 | 0.00 | 0.00 | 0.00 | 82 | 1007.5 |
| 20260831110901 | 82 | 191 | 0.0 | 0.0 | 0.00 | 0.00 | 0.00 | 82 | 1007.5 |
| 20260831110753 | 82 | 194 | 0.0 | 0.0 | 0.00 | 0.00 | 0.00 | 82 | 1007.5 |
| 20260831110645 | 82 | 182 | 0.0 | 0.0 | 0.00 | 0.00 | 0.00 | 82 | 1007.5 |
| 20260831110609 | 82 | 163 | 0.0 | 0.0 | 0.00 | 0.00 | 0.00 | 82 | 1007.5 |
| 20260831110533 | 82 | 184 | 0.0 | 0.0 | 0.00 | 0.00 | 0.00 | 82 | 1007.4 |
| 20260831110404 | 82 | 165 | 0.0 | 0.0 | 0.00 | 0.00 | 0.00 | 82 | 1007.4 |
| 20260831110305 | 82 | 209 | 0.0 | 0.0 | 0.00 | 0.00 | 0.00 | 82 | 1007.4 |
| 20260831110155 | 82 | 204 | 0.0 | 0.0 | 0.00 | 0.00 | 0.00 | 82 | 1007.4 |
| 20260831110051 | 82 | 204 | 1.0 | 0.0 | 0.00 | 0.00 | 0.00 | 82 | 1007.4 |
| 20260831110012 | 82 | 180 | 1.0 | 0.0 | 0.00 | 0.00 | 0.00 | 82 | 1007.4 |
| 20260831105851 | 82 | 243 | 1.0 | 0.0 | 0.00 | 0.00 | 0.00 | 82 | 1007.4 |
| 20260831105742 | 82 | 22 | 1.0 | 0.0 | 0.00 | 0.00 | 0.00 | 81 | 1007.4 |
| 20260831105710 | 82 | 198 | 1.0 | 0.0 | 0.00 | 0.00 | 0.00 | 81 | 1007.4 |
| 20260831105604 | 82 | 198 | 1.0 | 0.0 | 0.00 | 0.00 | 0.00 | 82 | 1007.4 |
| 20260831105510 | 82 | 197 | 1.0 | 0.0 | 0.00 | 0.00 | 0.00 | 81 | 1007.4 |
| 20260831105342 | 82 | 162 | 1.0 | 0.0 | 0.00 | 0.00 | 0.00 | 82 | 1007.4 |
| 20260831105306 | 82 | 198 | 1.0 | 0.0 | 0.00 | 0.00 | 0.00 | 82 | 1007.4 |
| 20260831105203 | 82 | 186 | 0.0 | 0.0 | 0.00 | 0.00 | 0.00 | 82 | 1007.4 |
| 20260831105057 | 82 | 199 | 1.0 | 0.0 | 0.00 | 0.00 | 0.00 | 81 | 1007.4 |
| 20260831104954 | 82 | 206 | 1.0 | 0.0 | 0.00 | 0.00 | 0.00 | 81 | 1007.4 |
| 20260831104855 | 82 | 211 | 1.0 | 0.0 | 0.00 | 0.00 | 0.00 | 81 | 1007.4 |
| 20260831104746 | 82 | 197 | 1.0 | 0.0 | 0.00 | 0.00 | 0.00 | 81 | 1007.4 |
| 20260831104713 | 82 | 197 | 1.0 | 0.0 | 0.00 | 0.00 | 0.00 | 81 | 1007.4 |
| 20260831104549 | 82 | 174 | 1.0 | 0.0 | 0.00 | 0.00 | 0.00 | 81 | 1007.4 |
| 20260831104511 | 82 | 169 | 1.0 | 0.0 | 0.00 | 0.00 | 0.00 | 81 | 1007.4 |
| 20260831104423 | 82 | 182 | 0.0 | 0.0 | 0.00 | 0.00 | 0.00 | 81 | 1007.4 |
| 20260831104305 | 82 | 182 | 0.0 | 0.0 | 0.00 | 0.00 | 0.00 | 81 | 1007.4 |
| 20260831104204 | 82 | 194 | 0.0 | 0.0 | 0.00 | 0.00 | 0.00 | 81 | 1007.4 |
| 20260831104125 | 82 | 211 | 0.0 | 0.0 | 0.00 | 0.00 | 0.00 | 81 | 1007.4 |
| 20260831103955 | 82 | 225 | 0.0 | 0.0 | 0.00 | 0.00 | 0.00 | 81 | 1007.4 |
| 20260831103856 | 82 | 214 | 0.0 | 0.0 | 0.00 | 0.00 | 0.00 | 81 | 1007.4 |
| 20260831103808 | 82 | 205 | 0.0 | 0.0 | 0.00 | 0.00 | 0.00 | 81 | 1007.4 |
| 20260831103653 | 82 | 212 | 0.0 | 0.0 | 0.00 | 0.00 | 0.00 | 81 | 1007.4 |
| 20260831103606 | 82 | 195 | 0.0 | 0.0 | 0.00 | 0.00 | 0.00 | 81 | 1007.4 |
| 20260831103448 | 82 | 238 | 0.0 | 0.0 | 0.00 | 0.00 | 0.00 | 81 | 1007.5 |
| 20260831103406 | 82 | 177 | 0.0 | 0.0 | 0.00 | 0.00 | 0.00 | 81 | 1007.5 |
| 20260831103306 | 82 | 184 | 0.0 | 0.0 | 0.00 | 0.00 | 0.00 | 81 | 1007.5 |
| 20260831103201 | 82 | 209 | 0.0 | 0.0 | 0.00 | 0.00 | 0.00 | 81 | 1007.5 |
| 20260831103054 | 83 | 204 | 0.0 | 0.0 | 0.00 | 0.00 | 0.00 | 81 | 1007.5 |
| 20260831102954 | 82 | 202 | 0.0 | 0.0 | 0.00 | 0.00 | 0.00 | 81 | 1007.5 |
| 20260831102852 | 83 | 209 | 0.0 | 0.0 | 0.00 | 0.00 | 0.00 | 81 | 1007.5 |
| 20260831102819 | 83 | 225 | 0.0 | 0.0 | 0.00 | 0.00 | 0.00 | 81 | 1007.5 |
| 20260831102654 | 83 | 194 | 0.0 | 0.0 | 0.00 | 0.00 | 0.00 | 81 | 1007.5 |
| 20260831102556 | 83 | 197 | 0.0 | 0.0 | 0.00 | 0.00 | 0.00 | 81 | 1007.5 |
| 20260831102450 | 83 | 180 | 0.0 | 0.0 | 0.00 | 0.00 | 0.00 | 81 | 1007.5 |
| 20260831102351 | 83 | 195 | 0.0 | 0.0 | 0.00 | 0.00 | 0.00 | 81 | 1007.5 |
| 20260831102306 | 83 | 197 | 0.0 | 0.0 | 0.00 | 0.00 | 0.00 | 81 | 1007.5 |
| 20260831102207 | 83 | 206 | 0.0 | 0.0 | 0.00 | 0.00 | 0.00 | 81 | 1007.5 |
| 20260831102042 | 83 | 202 | 0.0 | 0.0 | 0.00 | 0.00 | 0.00 | 81 | 1007.5 |
| 20260831101956 | 83 | 202 | 0.0 | 0.0 | 0.00 | 0.00 | 0.00 | 81 | 1007.5 |
| 20260831101901 | 83 | 180 | 0.0 | 0.0 | 0.00 | 0.00 | 0.00 | 81 | 1007.5 |
| 20260831101754 | 83 | 203 | 0.0 | 0.0 | 0.00 | 0.00 | 0.00 | 81 | 1007.5 |
| 20260831101646 | 83 | 178 | 0.0 | 0.0 | 0.00 | 0.00 | 0.00 | 81 | 1007.5 |
| 20260831101547 | 83 | 194 | 0.0 | 0.0 | 0.00 | 0.00 | 0.00 | 81 | 1007.5 |
| 20260831101500 | 83 | 217 | 0.0 | 0.0 | 0.00 | 0.00 | 0.00 | 81 | 1007.5 |
| 20260831101403 | 83 | 205 | 0.0 | 0.0 | 0.00 | 0.00 | 0.00 | 81 | 1007.5 |
| 20260831101255 | 83 | 193 | 1.0 | 0.0 | 0.00 | 0.00 | 0.00 | 81 | 1007.5 |
| 20260831101146 | 83 | 207 | 1.0 | 0.0 | 0.00 | 0.00 | 0.00 | 81 | 1007.5 |
| 20260831101046 | 83 | 194 | 1.0 | 0.0 | 0.00 | 0.00 | 0.00 | 81 | 1007.5 |
| 20260831101002 | 83 | 196 | 1.0 | 0.0 | 0.00 | 0.00 | 0.00 | 81 | 1007.5 |
| 20260831100904 | 83 | 210 | 1.0 | 0.0 | 0.00 | 0.00 | 0.00 | 81 | 1007.5 |
| 20260831100815 | 83 | 199 | 1.0 | 0.0 | 0.00 | 0.00 | 0.00 | 81 | 1007.5 |
| 20260831100702 | 83 | 186 | 0.0 | 0.0 | 0.00 | 0.00 | 0.00 | 81 | 1007.5 |
| 20260831100554 | 83 | 200 | 0.0 | 0.0 | 0.00 | 0.00 | 0.00 | 81 | 1007.5 |
| 20260831100521 | 83 | 169 | 0.0 | 0.0 | 0.00 | 0.00 | 0.00 | 81 | 1007.6 |
| 20260831100354 | 83 | 169 | 0.0 | 0.0 | 0.00 | 0.00 | 0.00 | 81 | 1007.6 |
| 20260831100157 | 83 | 194 | 0.0 | 0.0 | 0.00 | 0.00 | 0.00 | 81 | 1007.6 |
| 20260831100049 | 83 | 221 | 0.0 | 0.0 | 0.00 | 0.00 | 0.00 | 81 | 1007.6 |
| 20260831100013 | 83 | 169 | 0.0 | 0.0 | 0.00 | 0.00 | 0.00 | 81 | 1007.6 |
| 20260831095848 | 83 | 198 | 0.0 | 0.0 | 0.00 | 0.00 | 0.00 | 81 | 1007.6 |
| 20260831095754 | 83 | 205 | 0.0 | 0.0 | 0.00 | 0.00 | 0.00 | 81 | 1007.6 |
| 20260831095654 | 83 | 213 | 0.0 | 0.0 | 0.00 | 0.00 | 0.00 | 81 | 1007.6 |
| 20260831095546 | 83 | 190 | 0.0 | 0.0 | 0.00 | 0.00 | 0.00 | 81 | 1007.6 |
| 20260831095511 | 83 | 210 | 0.0 | 0.0 | 0.00 | 0.00 | 0.00 | 81 | 1007.6 |
| 20260831095347 | 83 | 178 | 0.0 | 0.0 | 0.00 | 0.00 | 0.00 | 81 | 1007.6 |
| 20260831095258 | 83 | 173 | 0.0 | 0.0 | 0.00 | 0.00 | 0.00 | 81 | 1007.6 |
| 20260831095203 | 83 | 173 | 0.0 | 0.0 | 0.00 | 0.00 | 0.00 | 81 | 1007.6 |
| 20260831095127 | 83 | 207 | 0.0 | 0.0 | 0.00 | 0.00 | 0.00 | 81 | 1007.6 |
| 20260831094944 | 83 | 180 | 0.0 | 0.0 | 0.00 | 0.00 | 0.00 | 81 | 1007.6 |
| 20260831094855 | 83 | 185 | 0.0 | 0.0 | 0.00 | 0.00 | 0.00 | 81 | 1007.6 |
| 20260831094757 | 83 | 210 | 0.0 | 0.0 | 0.00 | 0.00 | 0.00 | 81 | 1007.6 |
| 20260831094712 | 83 | 175 | 0.0 | 0.0 | 0.00 | 0.00 | 0.00 | 81 | 1007.6 |
| 20260831094554 | 83 | 173 | 0.0 | 0.0 | 0.00 | 0.00 | 0.00 | 81 | 1007.6 |
| 20260831094513 | 83 | 225 | 0.0 | 0.0 | 0.00 | 0.00 | 0.00 | 81 | 1007.6 |
| 20260831094434 | 83 | 173 | 0.0 | 0.0 | 0.00 | 0.00 | 0.00 | 81 | 1007.6 |
| 20260831094334 | 83 | 165 | 0.0 | 0.0 | 0.00 | 0.00 | 0.00 | 81 | 1007.6 |
| 20260831094148 | 83 | 190 | 0.0 | 0.0 | 0.00 | 0.00 | 0.00 | 81 | 1007.6 |
| 20260831094108 | 83 | 206 | 0.0 | 0.0 | 0.00 | 0.00 | 0.00 | 81 | 1007.6 |
| 20260831094002 | 83 | 200 | 1.0 | 0.0 | 0.00 | 0.00 | 0.00 | 81 | 1007.6 |
| 20260831093854 | 83 | 192 | 1.0 | 0.0 | 0.00 | 0.00 | 0.00 | 81 | 1007.6 |
| 20260831093814 | 83 | 203 | 1.0 | 0.0 | 0.00 | 0.00 | 0.00 | 81 | 1007.6 |
| 20260831093655 | 83 | 219 | 1.0 | 0.0 | 0.00 | 0.00 | 0.00 | 81 | 1007.6 |
| 20260831093547 | 83 | 194 | 1.0 | 0.0 | 0.00 | 0.00 | 0.00 | 81 | 1007.6 |
| 20260831093512 | 83 | 173 | 1.0 | 0.0 | 0.00 | 0.00 | 0.00 | 81 | 1007.6 |
| 20260831093346 | 83 | 198 | 1.0 | 0.0 | 0.00 | 0.00 | 0.00 | 81 | 1007.6 |
| 20260831093245 | 83 | 199 | 1.0 | 0.0 | 0.00 | 0.00 | 0.00 | 81 | 1007.6 |
| 20260831093153 | 83 | 200 | 1.0 | 0.0 | 0.00 | 0.00 | 0.00 | 81 | 1007.6 |
| 20260831093105 | 83 | 194 | 1.0 | 0.0 | 0.00 | 0.00 | 0.00 | 81 | 1007.6 |
| 20260831093007 | 83 | 159 | 0.0 | 0.0 | 0.00 | 0.00 | 0.00 | 81 | 1007.6 |
| 20260831092859 | 83 | 215 | 0.0 | 0.0 | 0.00 | 0.00 | 0.00 | 81 | 1007.6 |
| 20260831092759 | 83 | 180 | 0.0 | 0.0 | 0.00 | 0.00 | 0.00 | 81 | 1007.6 |
| 20260831092654 | 83 | 208 | 0.0 | 0.0 | 0.00 | 0.00 | 0.00 | 81 | 1007.6 |
| 20260831092553 | 83 | 213 | 0.0 | 0.0 | 0.00 | 0.00 | 0.00 | 81 | 1007.6 |
| 20260831092456 | 83 | 258 | 0.0 | 0.0 | 0.00 | 0.00 | 0.00 | 81 | 1007.6 |
| 20260831092422 | 83 | 157 | 1.0 | 0.0 | 0.00 | 0.00 | 0.00 | 81 | 1007.6 |
| 20260831092251 | 83 | 225 | 1.0 | 0.0 | 0.00 | 0.00 | 0.00 | 81 | 1007.6 |
| 20260831092142 | 83 | 194 | 1.0 | 0.0 | 0.00 | 0.00 | 0.00 | 81 | 1007.6 |
| 20260831092108 | 83 | 178 | 1.0 | 0.0 | 0.00 | 0.00 | 0.00 | 81 | 1007.6 |
| 20260831091942 | 83 | 179 | 1.0 | 0.0 | 0.00 | 0.00 | 0.00 | 81 | 1007.6 |
| 20260831091846 | 83 | 179 | 1.0 | 0.0 | 0.00 | 0.00 | 0.00 | 81 | 1007.6 |
| 20260831091754 | 83 | 179 | 1.0 | 0.0 | 0.00 | 0.00 | 0.00 | 81 | 1007.6 |
| 20260831091644 | 83 | 204 | 1.0 | 0.0 | 0.00 | 0.00 | 0.00 | 81 | 1007.6 |
| 20260831091608 | 83 | 178 | 1.0 | 0.0 | 0.00 | 0.00 | 0.00 | 81 | 1007.6 |
| 20260831091503 | 83 | 202 | 1.0 | 0.0 | 0.00 | 0.00 | 0.00 | 81 | 1007.6 |
| 20260831091403 | 83 | 232 | 1.0 | 0.0 | 0.00 | 0.00 | 0.00 | 81 | 1007.6 |
| 20260831091254 | 83 | 185 | 1.0 | 0.0 | 0.00 | 0.00 | 0.00 | 81 | 1007.6 |
| 20260831091155 | 83 | 185 | 1.0 | 0.0 | 0.00 | 0.00 | 0.00 | 81 | 1007.6 |
| 20260831091106 | 83 | 185 | 1.0 | 0.0 | 0.00 | 0.00 | 0.00 | 81 | 1007.6 |
| 20260831090959 | 83 | 219 | 1.0 | 0.0 | 0.00 | 0.00 | 0.00 | 80 | 1007.6 |
| 20260831090923 | 83 | 148 | 1.0 | 0.0 | 0.00 | 0.00 | 0.00 | 80 | 1007.6 |
| 20260831090753 | 83 | 159 | 1.0 | 0.0 | 0.00 | 0.00 | 0.00 | 80 | 1007.6 |
| 20260831090654 | 83 | 184 | 1.0 | 0.0 | 0.00 | 0.00 | 0.00 | 80 | 1007.6 |
| 20260831090606 | 83 | 209 | 1.0 | 0.0 | 0.00 | 0.00 | 0.00 | 80 | 1007.6 |
| 20260831090508 | 83 | 164 | 1.0 | 0.0 | 0.00 | 0.00 | 0.00 | 81 | 1007.6 |
| 20260831090400 | 83 | 192 | 1.0 | 0.0 | 0.00 | 0.00 | 0.00 | 80 | 1007.6 |
| 20260831090304 | 83 | 195 | 0.0 | 0.0 | 0.00 | 0.00 | 0.00 | 80 | 1007.6 |
| 20260831090202 | 83 | 187 | 0.0 | 0.0 | 0.00 | 0.00 | 0.00 | 80 | 1007.6 |
| 20260831090055 | 83 | 182 | 0.0 | 0.0 | 0.00 | 0.00 | 0.00 | 80 | 1007.6 |
| 20260831085956 | 84 | 215 | 1.0 | 0.0 | 0.00 | 0.00 | 0.00 | 80 | 1007.6 |
| 20260831085909 | 84 | 180 | 1.0 | 0.0 | 0.00 | 0.00 | 0.00 | 80 | 1007.6 |
| 20260831085749 | 83 | 180 | 1.0 | 0.0 | 0.00 | 0.00 | 0.00 | 80 | 1007.6 |
| 20260831085701 | 84 | 148 | 1.0 | 0.0 | 0.00 | 0.00 | 0.00 | 80 | 1007.6 |
| 20260831085603 | 84 | 187 | 1.0 | 0.0 | 0.00 | 0.00 | 0.00 | 80 | 1007.6 |
| 20260831085520 | 83 | 188 | 2.0 | 0.0 | 0.00 | 0.00 | 0.00 | 80 | 1007.6 |
| 20260831085421 | 84 | 178 | 2.0 | 0.0 | 0.00 | 0.00 | 0.00 | 80 | 1007.6 |
| 20260831085254 | 84 | 194 | 2.0 | 0.0 | 0.00 | 0.00 | 0.00 | 80 | 1007.6 |
| 20260831085158 | 84 | 193 | 2.0 | 0.0 | 0.00 | 0.00 | 0.00 | 80 | 1007.6 |
| 20260831085051 | 84 | 166 | 2.0 | 0.0 | 0.00 | 0.00 | 0.00 | 80 | 1007.6 |
| 20260831085015 | 84 | 194 | 2.0 | 0.0 | 0.00 | 0.00 | 0.00 | 80 | 1007.6 |
| 20260831084846 | 84 | 211 | 2.0 | 0.0 | 0.00 | 0.00 | 0.00 | 80 | 1007.6 |
| 20260831084801 | 84 | 98 | 2.0 | 0.0 | 0.00 | 0.00 | 0.00 | 80 | 1007.6 |
| 20260831084707 | 84 | 186 | 2.0 | 0.0 | 0.00 | 0.00 | 0.00 | 80 | 1007.6 |
| 20260831084600 | 84 | 196 | 2.0 | 0.0 | 0.00 | 0.00 | 0.00 | 80 | 1007.6 |
| 20260831084505 | 84 | 202 | 2.0 | 0.0 | 0.00 | 0.00 | 0.00 | 80 | 1007.6 |
| 20260831084355 | 84 | 168 | 2.0 | 0.0 | 0.00 | 0.00 | 0.00 | 80 | 1007.6 |
| 20260831084247 | 84 | 244 | 3.0 | 0.0 | 0.00 | 0.00 | 0.00 | 80 | 1007.6 |
| 20260831084208 | 84 | 213 | 3.0 | 0.0 | 0.00 | 0.00 | 0.00 | 80 | 1007.6 |
| 20260831084044 | 84 | 211 | 3.0 | 0.0 | 0.00 | 0.00 | 0.00 | 80 | 1007.6 |
| 20260831084011 | 84 | 174 | 3.0 | 0.0 | 0.00 | 0.00 | 0.00 | 80 | 1007.6 |
| 20260831083902 | 84 | 189 | 3.0 | 0.0 | 0.00 | 0.00 | 0.00 | 80 | 1007.6 |
| 20260831083805 | 84 | 201 | 3.0 | 0.0 | 0.00 | 0.00 | 0.00 | 80 | 1007.6 |
| 20260831083700 | 84 | 178 | 3.0 | 0.0 | 0.00 | 0.00 | 0.00 | 80 | 1007.6 |
| 20260831083552 | 84 | 182 | 3.0 | 0.0 | 0.00 | 0.00 | 0.00 | 80 | 1007.6 |
| 20260831083457 | 84 | 238 | 3.0 | 0.0 | 0.00 | 0.00 | 0.00 | 80 | 1007.7 |
| 20260831083352 | 84 | 207 | 2.0 | 0.0 | 0.00 | 0.00 | 0.00 | 80 | 1007.7 |
| 20260831083320 | 84 | 157 | 2.0 | 0.0 | 0.00 | 0.00 | 0.00 | 80 | 1007.7 |
| 20260831083150 | 84 | 205 | 2.0 | 0.0 | 0.00 | 0.00 | 0.00 | 80 | 1007.7 |
| 20260831083045 | 84 | 167 | 2.0 | 0.0 | 0.00 | 0.00 | 0.00 | 80 | 1007.7 |
| 20260831082948 | 84 | 171 | 2.0 | 0.0 | 0.00 | 0.00 | 0.00 | 80 | 1007.7 |
| 20260831082909 | 84 | 181 | 2.0 | 0.0 | 0.00 | 0.00 | 0.00 | 80 | 1007.7 |
| 20260831082808 | 84 | 188 | 2.0 | 0.0 | 0.00 | 0.00 | 0.00 | 80 | 1007.7 |
| 20260831082728 | 84 | 213 | 2.0 | 0.0 | 0.00 | 0.00 | 0.00 | 80 | 1007.7 |
| 20260831082602 | 84 | 192 | 2.0 | 0.0 | 0.00 | 0.00 | 0.00 | 80 | 1007.7 |
| 20260831082501 | 84 | 177 | 2.0 | 0.0 | 0.00 | 0.00 | 0.00 | 80 | 1007.7 |
| 20260831082423 | 84 | 203 | 2.0 | 0.0 | 0.00 | 0.00 | 0.00 | 80 | 1007.7 |
| 20260831082257 | 84 | 223 | 2.0 | 0.0 | 0.00 | 0.00 | 0.00 | 80 | 1007.7 |
| 20260831082158 | 84 | 229 | 2.0 | 0.0 | 0.00 | 0.00 | 0.00 | 80 | 1007.7 |
| 20260831082049 | 84 | 196 | 2.0 | 0.0 | 0.00 | 0.00 | 0.00 | 80 | 1007.7 |
| 20260831082014 | 84 | 171 | 1.0 | 0.0 | 0.00 | 0.00 | 0.00 | 80 | 1007.7 |
| 20260831081846 | 84 | 180 | 1.0 | 0.0 | 0.00 | 0.00 | 0.00 | 80 | 1007.7 |
| 20260831081802 | 84 | 225 | 1.0 | 0.0 | 0.00 | 0.00 | 0.00 | 80 | 1007.7 |
| 20260831081727 | 84 | 165 | 1.0 | 0.0 | 0.00 | 0.00 | 0.00 | 80 | 1007.7 |
| 20260831081608 | 84 | 150 | 1.0 | 0.0 | 0.00 | 0.00 | 0.00 | 80 | 1007.7 |
| 20260831081517 | 84 | 194 | 1.0 | 0.0 | 0.00 | 0.00 | 0.00 | 80 | 1007.7 |
| 20260831081420 | 84 | 207 | 1.0 | 0.0 | 0.00 | 0.00 | 0.00 | 80 | 1007.7 |
| 20260831081250 | 84 | 169 | 1.0 | 0.0 | 0.00 | 0.00 | 0.00 | 80 | 1007.7 |
| 20260831081144 | 84 | 193 | 1.0 | 0.0 | 0.00 | 0.00 | 0.00 | 79 | 1007.7 |
| 20260831081048 | 84 | 175 | 1.0 | 0.0 | 0.00 | 0.00 | 0.00 | 79 | 1007.7 |
| 20260831081006 | 84 | 192 | 1.0 | 0.0 | 0.00 | 0.00 | 0.00 | 79 | 1007.7 |
| 20260831080851 | 84 | 159 | 1.0 | 0.0 | 0.00 | 0.00 | 0.00 | 79 | 1007.7 |
| 20260831080741 | 84 | 203 | 1.0 | 0.0 | 0.00 | 0.00 | 0.00 | 79 | 1007.7 |
| 20260831080708 | 84 | 223 | 1.0 | 0.0 | 0.00 | 0.00 | 0.00 | 79 | 1007.7 |
| 20260831080603 | 84 | 207 | 1.0 | 0.0 | 0.00 | 0.00 | 0.00 | 79 | 1007.7 |
| 20260831080456 | 84 | 170 | 2.0 | 0.0 | 0.00 | 0.00 | 0.00 | 79 | 1008.0 |
| 20260831080358 | 84 | 227 | 2.0 | 0.0 | 0.00 | 0.00 | 0.00 | 79 | 1008.0 |
| 20260831080251 | 84 | 150 | 2.0 | 0.0 | 0.00 | 0.00 | 0.00 | 79 | 1008.0 |
| 20260831080149 | 84 | 198 | 2.0 | 0.0 | 0.00 | 0.00 | 0.00 | 79 | 1008.0 |
| 20260831080114 | 84 | 192 | 2.0 | 0.0 | 0.00 | 0.00 | 0.00 | 79 | 1008.0 |
| 20260831075945 | 84 | 180 | 2.0 | 0.0 | 0.00 | 0.00 | 0.00 | 79 | 1008.0 |
| 20260831075910 | 84 | 195 | 3.0 | 0.0 | 0.00 | 0.00 | 0.00 | 79 | 1008.0 |
| 20260831075831 | 84 | 183 | 3.0 | 0.0 | 0.00 | 0.00 | 0.00 | 79 | 1008.0 |
| 20260831075702 | 84 | 232 | 3.0 | 0.0 | 0.00 | 0.00 | 0.00 | 79 | 1008.0 |
| 20260831075557 | 84 | 194 | 3.0 | 0.0 | 0.00 | 0.00 | 0.00 | 79 | 1008.0 |
| 20260831075518 | 84 | 184 | 3.0 | 0.0 | 0.00 | 0.00 | 0.00 | 79 | 1008.0 |
| 20260831075356 | 84 | 195 | 3.0 | 0.0 | 0.00 | 0.00 | 0.00 | 79 | 1008.0 |
| 20260831075259 | 84 | 217 | 2.0 | 0.0 | 0.00 | 0.00 | 0.00 | 79 | 1008.0 |
| 20260831075155 | 84 | 210 | 3.0 | 0.0 | 0.00 | 0.00 | 0.00 | 79 | 1008.0 |
| 20260831075049 | 84 | 217 | 3.0 | 0.0 | 0.00 | 0.00 | 0.00 | 79 | 1008.0 |
| 20260831074954 | 84 | 229 | 3.0 | 0.0 | 0.00 | 0.00 | 0.00 | 79 | 1008.2 |
| 20260831074849 | 84 | 229 | 3.0 | 0.0 | 0.00 | 0.00 | 0.00 | 79 | 1008.2 |
| 20260831074741 | 84 | 166 | 3.0 | 0.0 | 0.00 | 0.00 | 0.00 | 79 | 1008.2 |
| 20260831074652 | 84 | 160 | 3.0 | 0.0 | 0.00 | 0.00 | 0.00 | 79 | 1008.2 |
| 20260831074544 | 84 | 171 | 3.0 | 0.0 | 0.00 | 0.00 | 0.00 | 79 | 1008.2 |
| 20260831074508 | 84 | 185 | 3.0 | 0.0 | 0.00 | 0.00 | 0.00 | 79 | 1008.2 |
| 20260831074401 | 84 | 195 | 3.0 | 0.0 | 0.00 | 0.00 | 0.00 | 79 | 1008.2 |
| 20260831074255 | 84 | 209 | 2.0 | 0.0 | 0.00 | 0.00 | 0.00 | 79 | 1008.2 |
| 20260831074200 | 84 | 181 | 2.0 | 0.0 | 0.00 | 0.00 | 0.00 | 79 | 1008.2 |
| 20260831074056 | 84 | 165 | 2.0 | 0.0 | 0.00 | 0.00 | 0.00 | 79 | 1008.2 |
| 20260831074002 | 84 | 179 | 2.0 | 0.0 | 0.00 | 0.00 | 0.00 | 79 | 1008.2 |
| 20260831073853 | 84 | 250 | 2.0 | 0.0 | 0.00 | 0.00 | 0.00 | 79 | 1008.2 |
| 20260831073749 | 84 | 180 | 2.0 | 0.0 | 0.00 | 0.00 | 0.00 | 79 | 1008.2 |
| 20260831073650 | 84 | 159 | 2.0 | 0.0 | 0.00 | 0.00 | 0.00 | 79 | 1008.2 |
| 20260831073605 | 84 | 223 | 2.0 | 0.0 | 0.00 | 0.00 | 0.00 | 79 | 1008.2 |
| 20260831073507 | 85 | 228 | 2.0 | 0.0 | 0.00 | 0.00 | 0.00 | 79 | 1008.2 |
| 20260831073400 | 85 | 165 | 2.0 | 0.0 | 0.00 | 0.00 | 0.00 | 79 | 1008.2 |
| 20260831073256 | 85 | 189 | 2.0 | 0.0 | 0.00 | 0.00 | 0.00 | 79 | 1008.2 |
| 20260831073158 | 85 | 204 | 2.0 | 0.0 | 0.00 | 0.00 | 0.00 | 79 | 1008.2 |
| 20260831073049 | 85 | 155 | 2.0 | 0.0 | 0.00 | 0.00 | 0.00 | 79 | 1008.2 |
| 20260831072945 | 85 | 186 | 2.0 | 0.0 | 0.00 | 0.00 | 0.00 | 79 | 1008.2 |
| 20260831072909 | 85 | 199 | 2.0 | 0.0 | 0.00 | 0.00 | 0.00 | 79 | 1008.2 |
| 20260831072833 | 85 | 151 | 2.0 | 0.0 | 0.00 | 0.00 | 0.00 | 79 | 1008.2 |
| 20260831072708 | 85 | 173 | 2.0 | 0.0 | 0.00 | 0.00 | 0.00 | 79 | 1008.2 |
| 20260831072608 | 85 | 173 | 2.0 | 0.0 | 0.00 | 0.00 | 0.00 | 79 | 1008.2 |
| 20260831072507 | 85 | 242 | 2.0 | 0.0 | 0.00 | 0.00 | 0.00 | 79 | 1008.2 |
| 20260831072428 | 85 | 226 | 2.0 | 0.0 | 0.00 | 0.00 | 0.00 | 79 | 1008.2 |
| 20260831072306 | 85 | 157 | 2.0 | 0.0 | 0.00 | 0.00 | 0.00 | 79 | 1008.2 |
| 20260831072157 | 85 | 206 | 3.0 | 0.0 | 0.00 | 0.00 | 0.00 | 79 | 1008.2 |
| 20260831072100 | 85 | 153 | 3.0 | 0.0 | 0.00 | 0.00 | 0.00 | 79 | 1008.2 |
| 20260831072026 | 85 | 175 | 3.0 | 0.0 | 0.00 | 0.00 | 0.00 | 79 | 1008.5 |
| 20260831071854 | 85 | 234 | 3.0 | 0.0 | 0.00 | 0.00 | 0.00 | 79 | 1008.5 |
| 20260831071750 | 85 | 184 | 3.0 | 0.0 | 0.00 | 0.00 | 0.00 | 79 | 1008.5 |
| 20260831071655 | 85 | 223 | 3.0 | 0.0 | 0.00 | 0.00 | 0.00 | 79 | 1008.5 |
| 20260831071552 | 85 | 142 | 3.0 | 0.0 | 0.00 | 0.00 | 0.00 | 79 | 1008.5 |
| 20260831071513 | 85 | 190 | 3.0 | 0.0 | 0.00 | 0.00 | 0.00 | 79 | 1008.5 |
| 20260831071345 | 85 | 254 | 3.0 | 0.0 | 0.00 | 0.00 | 0.00 | 79 | 1008.5 |
| 20260831071257 | 85 | 192 | 3.0 | 0.0 | 0.00 | 0.00 | 0.00 | 79 | 1008.5 |
| 20260831071159 | 85 | 188 | 2.0 | 0.0 | 0.00 | 0.00 | 0.00 | 79 | 1008.5 |
| 20260831071051 | 85 | 217 | 2.0 | 0.0 | 0.00 | 0.00 | 0.00 | 79 | 1008.5 |
| 20260831070958 | 85 | 165 | 2.0 | 0.0 | 0.00 | 0.00 | 0.00 | 79 | 1008.5 |
| 20260831070909 | 85 | 185 | 2.0 | 0.0 | 0.00 | 0.00 | 0.00 | 79 | 1008.5 |
| 20260831070753 | 85 | 238 | 2.0 | 0.0 | 0.00 | 0.00 | 0.00 | 79 | 1008.5 |
| 20260831070648 | 85 | 188 | 2.0 | 0.0 | 0.00 | 0.00 | 0.00 | 79 | 1008.5 |
| 20260831070612 | 85 | 202 | 2.0 | 0.0 | 0.00 | 0.00 | 0.00 | 79 | 1008.5 |
| 20260831070525 | 85 | 204 | 2.0 | 0.0 | 0.00 | 0.00 | 0.00 | 79 | 1008.7 |
| 20260831070405 | 85 | 169 | 2.0 | 0.0 | 0.00 | 0.00 | 0.00 | 79 | 1008.7 |
| 20260831070259 | 85 | 167 | 3.0 | 0.0 | 0.00 | 0.00 | 0.00 | 79 | 1008.7 |
| 20260831070159 | 85 | 215 | 3.0 | 0.0 | 0.00 | 0.00 | 0.00 | 79 | 1008.7 |
| 20260831070101 | 85 | 205 | 3.0 | 0.0 | 0.00 | 0.00 | 0.00 | 79 | 1008.7 |
| 20260831065950 | 85 | 216 | 4.0 | 0.0 | 0.00 | 0.00 | 0.00 | 79 | 1008.7 |
| 20260831065912 | 85 | 172 | 4.0 | 0.0 | 0.00 | 0.00 | 0.00 | 79 | 1008.7 |
| 20260831065743 | 85 | 196 | 4.0 | 0.0 | 0.00 | 0.00 | 0.00 | 79 | 1008.7 |
| 20260831065657 | 85 | 202 | 4.0 | 0.0 | 0.00 | 0.00 | 0.00 | 79 | 1008.7 |
| 20260831065600 | 85 | 209 | 4.0 | 0.0 | 0.00 | 0.00 | 0.00 | 79 | 1008.7 |
| 20260831065459 | 85 | 221 | 4.0 | 0.0 | 0.00 | 0.00 | 0.00 | 79 | 1008.7 |
| 20260831065355 | 85 | 144 | 3.0 | 0.0 | 0.00 | 0.00 | 0.00 | 79 | 1008.7 |
| 20260831065256 | 85 | 187 | 3.0 | 0.0 | 0.00 | 0.00 | 0.00 | 79 | 1008.7 |
| 20260831065207 | 85 | 170 | 3.0 | 0.0 | 0.00 | 0.00 | 0.00 | 79 | 1008.7 |
| 20260831065048 | 85 | 215 | 2.0 | 0.0 | 0.00 | 0.00 | 0.00 | 79 | 1008.7 |
| 20260831065000 | 85 | 207 | 2.0 | 0.0 | 0.00 | 0.00 | 0.00 | 79 | 1008.7 |
| 20260831064902 | 85 | 191 | 2.0 | 0.0 | 0.00 | 0.00 | 0.00 | 79 | 1008.7 |
| 20260831064754 | 85 | 185 | 1.0 | 0.0 | 0.00 | 0.00 | 0.00 | 79 | 1008.7 |
| 20260831064723 | 85 | 186 | 1.0 | 0.0 | 0.00 | 0.00 | 0.00 | 79 | 1008.7 |
| 20260831064553 | 85 | 169 | 1.0 | 0.0 | 0.00 | 0.00 | 0.00 | 79 | 1008.7 |
| 20260831064514 | 85 | 225 | 1.0 | 0.0 | 0.00 | 0.00 | 0.00 | 79 | 1008.7 |
| 20260831064346 | 85 | 215 | 1.0 | 0.0 | 0.00 | 0.00 | 0.00 | 79 | 1008.7 |
| 20260831064303 | 85 | 236 | 1.0 | 0.0 | 0.00 | 0.00 | 0.00 | 79 | 1008.7 |
| 20260831064204 | 85 | 232 | 1.0 | 0.0 | 0.00 | 0.00 | 0.00 | 79 | 1008.7 |
| 20260831064056 | 85 | 165 | 1.0 | 0.0 | 0.00 | 0.00 | 0.00 | 79 | 1008.7 |
| 20260831064017 | 85 | 165 | 1.0 | 0.0 | 0.00 | 0.00 | 0.00 | 79 | 1008.7 |
| 20260831063853 | 85 | 182 | 1.0 | 0.0 | 0.00 | 0.00 | 0.00 | 79 | 1008.7 |
| 20260831063752 | 85 | 175 | 1.0 | 0.0 | 0.00 | 0.00 | 0.00 | 79 | 1008.7 |
| 20260831063719 | 85 | 188 | 1.0 | 0.0 | 0.00 | 0.00 | 0.00 | 79 | 1008.7 |
| 20260831063551 | 85 | 158 | 1.0 | 0.0 | 0.00 | 0.00 | 0.00 | 79 | 1008.7 |
| 20260831063447 | 85 | 154 | 1.0 | 0.0 | 0.00 | 0.00 | 0.00 | 79 | 1008.7 |
| 20260831063407 | 85 | 179 | 1.0 | 0.0 | 0.00 | 0.00 | 0.00 | 79 | 1008.7 |
| 20260831063313 | 85 | 207 | 2.0 | 0.0 | 0.00 | 0.00 | 0.00 | 79 | 1008.7 |
| 20260831063146 | 85 | 167 | 2.0 | 0.0 | 0.00 | 0.00 | 0.00 | 79 | 1008.7 |
| 20260831063102 | 85 | 213 | 2.0 | 0.0 | 0.00 | 0.00 | 0.00 | 79 | 1008.7 |
| 20260831063003 | 85 | 190 | 2.0 | 0.0 | 0.00 | 0.00 | 0.00 | 79 | 1008.7 |
| 20260831062901 | 85 | 192 | 2.0 | 0.0 | 0.00 | 0.00 | 0.00 | 79 | 1008.7 |
| 20260831062757 | 85 | 171 | 3.0 | 0.0 | 0.00 | 0.00 | 0.00 | 79 | 1008.7 |
| 20260831062717 | 85 | 193 | 3.0 | 0.0 | 0.00 | 0.00 | 0.00 | 79 | 1008.7 |
| 20260831062602 | 85 | 74 | 3.0 | 0.0 | 0.00 | 0.00 | 0.00 | 79 | 1008.7 |
| 20260831062452 | 85 | 192 | 3.0 | 0.0 | 0.00 | 0.00 | 0.00 | 79 | 1008.7 |
| 20260831062351 | 85 | 196 | 3.0 | 0.0 | 0.00 | 0.00 | 0.00 | 79 | 1008.7 |
| 20260831062245 | 85 | 161 | 3.0 | 0.0 | 0.00 | 0.00 | 0.00 | 78 | 1008.7 |
| 20260831062153 | 85 | 191 | 3.0 | 0.0 | 0.00 | 0.00 | 0.00 | 78 | 1008.7 |
| 20260831062044 | 85 | 220 | 3.0 | 0.0 | 0.00 | 0.00 | 0.00 | 79 | 1008.7 |
| 20260831062008 | 85 | 194 | 3.0 | 0.0 | 0.00 | 0.00 | 0.00 | 78 | 1008.7 |
| 20260831061902 | 85 | 223 | 3.0 | 0.0 | 0.00 | 0.00 | 0.00 | 78 | 1008.7 |
| 20260831061754 | 85 | 144 | 3.0 | 0.0 | 0.00 | 0.00 | 0.00 | 78 | 1008.7 |
| 20260831061655 | 85 | 209 | 3.0 | 0.0 | 0.00 | 0.00 | 0.00 | 78 | 1008.7 |
| 20260831061549 | 85 | 208 | 3.0 | 0.0 | 0.00 | 0.00 | 0.00 | 78 | 1008.7 |
| 20260831061448 | 85 | 170 | 3.0 | 0.0 | 0.00 | 0.00 | 0.00 | 78 | 1008.7 |
| 20260831061353 | 85 | 209 | 3.0 | 0.0 | 0.00 | 0.00 | 0.00 | 78 | 1008.7 |
| 20260831061305 | 85 | 166 | 3.0 | 0.0 | 0.00 | 0.00 | 0.00 | 78 | 1008.7 |
| 20260831061204 | 85 | 192 | 3.0 | 0.0 | 0.00 | 0.00 | 0.00 | 78 | 1008.7 |
| 20260831061058 | 85 | 154 | 3.0 | 0.0 | 0.00 | 0.00 | 0.00 | 78 | 1008.7 |
| 20260831061023 | 85 | 178 | 3.0 | 0.0 | 0.00 | 0.00 | 0.00 | 78 | 1008.7 |
| 20260831060854 | 85 | 219 | 3.0 | 0.0 | 0.00 | 0.00 | 0.00 | 78 | 1008.7 |
| 20260831060755 | 85 | 163 | 2.0 | 0.0 | 0.00 | 0.00 | 0.00 | 78 | 1008.7 |
| 20260831060651 | 85 | 197 | 3.0 | 0.0 | 0.00 | 0.00 | 0.00 | 78 | 1008.7 |
| 20260831060552 | 85 | 173 | 3.0 | 0.0 | 0.00 | 0.00 | 0.00 | 78 | 1008.7 |
| 20260831060505 | 85 | 218 | 3.0 | 0.0 | 0.00 | 0.00 | 0.00 | 78 | 1008.7 |
| 20260831060405 | 85 | 167 | 3.0 | 0.0 | 0.00 | 0.00 | 0.00 | 78 | 1008.7 |
| 20260831060259 | 85 | 161 | 4.0 | 0.0 | 0.00 | 0.00 | 0.00 | 78 | 1008.7 |
| 20260831060154 | 85 | 182 | 4.0 | 0.0 | 0.00 | 0.00 | 0.00 | 78 | 1008.7 |
| 20260831060054 | 85 | 150 | 4.0 | 0.0 | 0.00 | 0.00 | 0.00 | 78 | 1008.7 |
| 20260831060015 | 85 | 224 | 4.0 | 0.0 | 0.00 | 0.00 | 0.00 | 78 | 1008.7 |
| 20260831055849 | 85 | 180 | 4.0 | 0.0 | 0.00 | 0.00 | 0.00 | 78 | 1008.7 |
| 20260831055811 | 85 | 200 | 4.0 | 0.0 | 0.00 | 0.00 | 0.00 | 78 | 1008.7 |
| 20260831055642 | 85 | 153 | 4.0 | 0.0 | 0.00 | 0.00 | 0.00 | 78 | 1008.7 |
| 20260831055555 | 85 | 163 | 4.0 | 0.0 | 0.00 | 0.00 | 0.00 | 78 | 1008.7 |
| 20260831055500 | 85 | 185 | 3.0 | 0.0 | 0.00 | 0.00 | 0.00 | 78 | 1008.7 |
| 20260831055352 | 85 | 178 | 3.0 | 0.0 | 0.00 | 0.00 | 0.00 | 78 | 1008.7 |
| 20260831055255 | 85 | 188 | 3.0 | 0.0 | 0.00 | 0.00 | 0.00 | 78 | 1008.7 |
| 20260831055152 | 85 | 185 | 3.0 | 0.0 | 0.00 | 0.00 | 0.00 | 78 | 1008.7 |
| 20260831055116 | 85 | 192 | 4.0 | 0.0 | 0.00 | 0.00 | 0.00 | 78 | 1008.7 |
| 20260831054946 | 85 | 247 | 4.0 | 0.0 | 0.00 | 0.00 | 0.00 | 78 | 1008.7 |
| 20260831054914 | 85 | 205 | 3.0 | 0.0 | 0.00 | 0.00 | 0.00 | 78 | 1008.7 |
| 20260831054747 | 85 | 197 | 3.0 | 0.0 | 0.00 | 0.00 | 0.00 | 78 | 1008.7 |
| 20260831054659 | 85 | 209 | 3.0 | 0.0 | 0.00 | 0.00 | 0.00 | 78 | 1008.7 |
| 20260831054600 | 85 | 158 | 3.0 | 0.0 | 0.00 | 0.00 | 0.00 | 78 | 1008.7 |
| 20260831054451 | 85 | 184 | 3.0 | 0.0 | 0.00 | 0.00 | 0.00 | 78 | 1008.7 |
| 20260831054350 | 85 | 189 | 3.0 | 0.0 | 0.00 | 0.00 | 0.00 | 78 | 1008.7 |
| 20260831054254 | 85 | 194 | 3.0 | 0.0 | 0.00 | 0.00 | 0.00 | 78 | 1008.7 |
| 20260831054149 | 85 | 98 | 2.0 | 0.0 | 0.00 | 0.00 | 0.00 | 78 | 1008.7 |
| 20260831054111 | 85 | 210 | 2.0 | 0.0 | 0.00 | 0.00 | 0.00 | 78 | 1008.7 |
| 20260831054001 | 85 | 174 | 2.0 | 0.0 | 0.00 | 0.00 | 0.00 | 79 | 1008.7 |
| 20260831053902 | 85 | 115 | 1.0 | 0.0 | 0.00 | 0.00 | 0.00 | 79 | 1008.7 |
| 20260831053754 | 85 | 248 | 1.0 | 0.0 | 0.00 | 0.00 | 0.00 | 79 | 1008.7 |
| 20260831053654 | 85 | 186 | 1.0 | 0.0 | 0.00 | 0.00 | 0.00 | 79 | 1008.7 |
| 20260831053550 | 85 | 153 | 1.0 | 0.0 | 0.00 | 0.00 | 0.00 | 79 | 1008.7 |
| 20260831053514 | 85 | 172 | 1.0 | 0.0 | 0.00 | 0.00 | 0.00 | 79 | 1008.7 |
| 20260831053347 | 85 | 217 | 1.0 | 0.0 | 0.00 | 0.00 | 0.00 | 79 | 1008.7 |
| 20260831053301 | 85 | 203 | 1.0 | 0.0 | 0.00 | 0.00 | 0.00 | 79 | 1008.7 |
| 20260831053229 | 86 | 201 | 1.0 | 0.0 | 0.00 | 0.00 | 0.00 | 79 | 1008.7 |
| 20260831053129 | 85 | 217 | 2.0 | 0.0 | 0.00 | 0.00 | 0.00 | 79 | 1008.7 |
| 20260831053004 | 86 | 197 | 1.0 | 0.0 | 0.00 | 0.00 | 0.00 | 79 | 1008.7 |
| 20260831052926 | 85 | 197 | 1.0 | 0.0 | 0.00 | 0.00 | 0.00 | 79 | 1008.7 |
| 20260831052826 | 86 | 220 | 2.0 | 0.0 | 0.00 | 0.00 | 0.00 | 79 | 1008.7 |
| 20260831052724 | 86 | 184 | 2.0 | 0.0 | 0.00 | 0.00 | 0.00 | 79 | 1008.7 |
| 20260831052541 | 86 | 177 | 2.0 | 0.0 | 0.00 | 0.00 | 0.00 | 79 | 1008.7 |
| 20260831052455 | 86 | 225 | 3.0 | 0.0 | 0.00 | 0.00 | 0.00 | 79 | 1008.7 |
| 20260831052422 | 86 | 167 | 3.0 | 0.0 | 0.00 | 0.00 | 0.00 | 79 | 1008.7 |
| 20260831052253 | 86 | 198 | 3.0 | 0.0 | 0.00 | 0.00 | 0.00 | 79 | 1008.7 |
| 20260831052154 | 85 | 167 | 3.0 | 0.0 | 0.00 | 0.00 | 0.00 | 79 | 1008.7 |
| 20260831052044 | 85 | 194 | 3.0 | 0.0 | 0.00 | 0.00 | 0.00 | 79 | 1008.7 |
| 20260831052011 | 85 | 198 | 3.0 | 0.0 | 0.00 | 0.00 | 0.00 | 79 | 1008.7 |
| 20260831051850 | 85 | 231 | 3.0 | 0.0 | 0.00 | 0.00 | 0.00 | 79 | 1008.7 |
| 20260831051745 | 85 | 204 | 3.0 | 0.0 | 0.00 | 0.00 | 0.00 | 78 | 1008.7 |
| 20260831051709 | 85 | 221 | 3.0 | 0.0 | 0.00 | 0.00 | 0.00 | 78 | 1008.7 |
| 20260831051559 | 85 | 183 | 3.0 | 0.0 | 0.00 | 0.00 | 0.00 | 78 | 1008.7 |
| 20260831051503 | 85 | 203 | 3.0 | 0.0 | 0.00 | 0.00 | 0.00 | 79 | 1008.7 |
| 20260831051358 | 85 | 190 | 2.0 | 0.0 | 0.00 | 0.00 | 0.00 | 79 | 1008.7 |
| 20260831051252 | 85 | 134 | 3.0 | 0.0 | 0.00 | 0.00 | 0.00 | 79 | 1008.7 |
| 20260831051201 | 85 | 169 | 3.0 | 0.0 | 0.00 | 0.00 | 0.00 | 79 | 1008.7 |
| 20260831051053 | 85 | 148 | 2.0 | 0.0 | 0.00 | 0.00 | 0.00 | 79 | 1008.7 |
| 20260831050949 | 85 | 194 | 2.0 | 0.0 | 0.00 | 0.00 | 0.00 | 79 | 1008.7 |
| 20260831050851 | 85 | 170 | 2.0 | 0.0 | 0.00 | 0.00 | 0.00 | 79 | 1008.7 |
| 20260831050742 | 85 | 196 | 2.0 | 0.0 | 0.00 | 0.00 | 0.00 | 79 | 1008.7 |
| 20260831050709 | 85 | 192 | 2.0 | 0.0 | 0.00 | 0.00 | 0.00 | 79 | 1008.7 |
| 20260831050605 | 85 | 257 | 2.0 | 0.0 | 0.00 | 0.00 | 0.00 | 79 | 1008.7 |
| 20260831050525 | 85 | 173 | 2.0 | 0.0 | 0.00 | 0.00 | 0.00 | 79 | 1008.7 |
| 20260831050406 | 85 | 124 | 2.0 | 0.0 | 0.00 | 0.00 | 0.00 | 79 | 1008.7 |
| 20260831050328 | 85 | 199 | 2.0 | 0.0 | 0.00 | 0.00 | 0.00 | 79 | 1008.7 |
| 20260831050229 | 85 | 209 | 2.0 | 0.0 | 0.00 | 0.00 | 0.00 | 79 | 1008.7 |
| 20260831050059 | 85 | 195 | 2.0 | 0.0 | 0.00 | 0.00 | 0.00 | 79 | 1008.7 |
| 20260831045950 | 85 | 187 | 2.0 | 0.0 | 0.00 | 0.00 | 0.00 | 79 | 1008.7 |
| 20260831045841 | 85 | 229 | 2.0 | 0.0 | 0.00 | 0.00 | 0.00 | 79 | 1008.7 |
| 20260831045747 | 85 | 246 | 2.0 | 0.0 | 0.00 | 0.00 | 0.00 | 79 | 1008.7 |
| 20260831045650 | 85 | 132 | 2.0 | 0.0 | 0.00 | 0.00 | 0.00 | 79 | 1008.7 |
| 20260831045604 | 86 | 179 | 2.0 | 0.0 | 0.00 | 0.00 | 0.00 | 79 | 1008.7 |
| 20260831045504 | 85 | 200 | 2.0 | 0.0 | 0.00 | 0.00 | 0.00 | 79 | 1008.7 |
| 20260831045359 | 86 | 176 | 2.0 | 0.0 | 0.00 | 0.00 | 0.00 | 79 | 1008.7 |
| 20260831045251 | 85 | 179 | 2.0 | 0.0 | 0.00 | 0.00 | 0.00 | 79 | 1008.7 |
| 20260831045156 | 86 | 180 | 2.0 | 0.0 | 0.00 | 0.00 | 0.00 | 79 | 1008.7 |
| 20260831045050 | 85 | 175 | 2.0 | 0.0 | 0.00 | 0.00 | 0.00 | 79 | 1008.7 |
| 20260831044954 | 86 | 182 | 2.0 | 0.0 | 0.00 | 0.00 | 0.00 | 79 | 1008.7 |
| 20260831044850 | 86 | 216 | 2.0 | 0.0 | 0.00 | 0.00 | 0.00 | 78 | 1008.7 |
| 20260831044745 | 86 | 171 | 1.0 | 0.0 | 0.00 | 0.00 | 0.00 | 78 | 1008.7 |
| 20260831044709 | 86 | 149 | 1.0 | 0.0 | 0.00 | 0.00 | 0.00 | 78 | 1008.7 |
| 20260831044610 | 86 | 175 | 1.0 | 0.0 | 0.00 | 0.00 | 0.00 | 78 | 1008.7 |
| 20260831044520 | 86 | 205 | 1.0 | 0.0 | 0.00 | 0.00 | 0.00 | 78 | 1008.7 |
| 20260831044403 | 86 | 219 | 1.0 | 0.0 | 0.00 | 0.00 | 0.00 | 78 | 1008.7 |
| 20260831044258 | 86 | 182 | 1.0 | 0.0 | 0.00 | 0.00 | 0.00 | 78 | 1008.7 |
| 20260831044151 | 86 | 208 | 1.0 | 0.0 | 0.00 | 0.00 | 0.00 | 78 | 1008.7 |
| 20260831044055 | 86 | 153 | 2.0 | 0.0 | 0.00 | 0.00 | 0.00 | 78 | 1008.7 |
| 20260831043950 | 86 | 196 | 2.0 | 0.0 | 0.00 | 0.00 | 0.00 | 78 | 1008.7 |
| 20260831043912 | 86 | 167 | 2.0 | 0.0 | 0.00 | 0.00 | 0.00 | 78 | 1008.7 |
| 20260831043744 | 86 | 162 | 2.0 | 0.0 | 0.00 | 0.00 | 0.00 | 78 | 1008.7 |
| 20260831043658 | 86 | 161 | 2.0 | 0.0 | 0.00 | 0.00 | 0.00 | 78 | 1008.7 |
| 20260831043600 | 86 | 190 | 2.0 | 0.0 | 0.00 | 0.00 | 0.00 | 78 | 1008.7 |
| 20260831043452 | 86 | 181 | 2.0 | 0.0 | 0.00 | 0.00 | 0.00 | 78 | 1008.6 |
| 20260831043358 | 86 | 178 | 2.0 | 0.0 | 0.00 | 0.00 | 0.00 | 78 | 1008.6 |
| 20260831043254 | 86 | 175 | 2.0 | 0.0 | 0.00 | 0.00 | 0.00 | 78 | 1008.6 |
| 20260831043146 | 86 | 178 | 2.0 | 0.0 | 0.00 | 0.00 | 0.00 | 78 | 1008.6 |
| 20260831043048 | 86 | 217 | 2.0 | 0.0 | 0.00 | 0.00 | 0.00 | 78 | 1008.6 |
| 20260831043004 | 86 | 109 | 2.0 | 0.0 | 0.00 | 0.00 | 0.00 | 78 | 1008.6 |
| 20260831042844 | 86 | 177 | 1.0 | 0.0 | 0.00 | 0.00 | 0.00 | 77 | 1008.6 |
| 20260831042756 | 86 | 84 | 1.0 | 0.0 | 0.00 | 0.00 | 0.00 | 77 | 1008.6 |
| 20260831042657 | 86 | 147 | 2.0 | 0.0 | 0.00 | 0.00 | 0.00 | 77 | 1008.6 |
| 20260831042554 | 86 | 260 | 2.0 | 0.0 | 0.00 | 0.00 | 0.00 | 77 | 1008.6 |
| 20260831042446 | 86 | 165 | 3.0 | 0.0 | 0.00 | 0.00 | 0.00 | 77 | 1008.6 |
| 20260831042348 | 86 | 161 | 2.0 | 0.0 | 0.00 | 0.00 | 0.00 | 77 | 1008.6 |
| 20260831042311 | 86 | 216 | 2.0 | 0.0 | 0.00 | 0.00 | 0.00 | 77 | 1008.6 |
| 20260831042204 | 86 | 172 | 2.0 | 0.0 | 0.00 | 0.00 | 0.00 | 76 | 1008.6 |
| 20260831042055 | 86 | 176 | 3.0 | 0.0 | 0.00 | 0.00 | 0.00 | 76 | 1008.6 |
| 20260831041947 | 86 | 210 | 3.0 | 0.0 | 0.00 | 0.00 | 0.00 | 76 | 1008.4 |
| 20260831041850 | 86 | 171 | 3.0 | 0.0 | 0.00 | 0.00 | 0.00 | 76 | 1008.4 |
| 20260831041751 | 86 | 171 | 3.0 | 0.0 | 0.00 | 0.00 | 0.00 | 76 | 1008.4 |
| 20260831041657 | 86 | 171 | 3.0 | 0.0 | 0.00 | 0.00 | 0.00 | 76 | 1008.4 |
| 20260831041551 | 86 | 207 | 3.0 | 0.0 | 0.00 | 0.00 | 0.00 | 76 | 1008.4 |
| 20260831041454 | 86 | 240 | 2.0 | 0.0 | 0.00 | 0.00 | 0.00 | 76 | 1008.4 |
| 20260831041350 | 86 | 252 | 2.0 | 0.0 | 0.00 | 0.00 | 0.00 | 76 | 1008.4 |
| 20260831041251 | 86 | 174 | 2.0 | 0.0 | 0.00 | 0.00 | 0.00 | 76 | 1008.4 |
| 20260831041203 | 86 | 196 | 3.0 | 0.0 | 0.00 | 0.00 | 0.00 | 75 | 1008.4 |
| 20260831041107 | 86 | 188 | 2.0 | 0.0 | 0.00 | 0.00 | 0.00 | 75 | 1008.4 |
| 20260831041002 | 86 | 145 | 2.0 | 0.0 | 0.00 | 0.00 | 0.00 | 75 | 1008.4 |
| 20260831040903 | 86 | 175 | 2.0 | 0.0 | 0.00 | 0.00 | 0.00 | 75 | 1008.4 |
| 20260831040755 | 86 | 175 | 3.0 | 0.0 | 0.00 | 0.00 | 0.00 | 75 | 1008.4 |
| 20260831040648 | 86 | 173 | 2.0 | 0.0 | 0.00 | 0.00 | 0.00 | 75 | 1008.4 |
| 20260831040549 | 86 | 202 | 2.0 | 0.0 | 0.00 | 0.00 | 0.00 | 75 | 1008.4 |
| 20260831040505 | 86 | 225 | 2.0 | 0.0 | 0.00 | 0.00 | 0.00 | 75 | 1008.2 |
| 20260831040405 | 86 | 245 | 2.0 | 0.0 | 0.00 | 0.00 | 0.00 | 75 | 1008.2 |
| 20260831040247 | 86 | 190 | 2.0 | 0.0 | 0.00 | 0.00 | 0.00 | 74 | 1008.2 |
| 20260831040141 | 86 | 167 | 2.0 | 0.0 | 0.00 | 0.00 | 0.00 | 75 | 1008.2 |
| 20260831040108 | 86 | 163 | 2.0 | 0.0 | 0.00 | 0.00 | 0.00 | 75 | 1008.2 |
| 20260831040000 | 86 | 132 | 2.0 | 0.0 | 0.00 | 0.00 | 0.00 | 74 | 1008.2 |
| 20260831035902 | 86 | 156 | 2.0 | 0.0 | 0.00 | 0.00 | 0.00 | 75 | 1008.2 |
| 20260831035814 | 86 | 217 | 1.0 | 0.0 | 0.00 | 0.00 | 0.00 | 75 | 1008.2 |
| 20260831035656 | 86 | 192 | 1.0 | 0.0 | 0.00 | 0.00 | 0.00 | 75 | 1008.2 |
| 20260831035556 | 86 | 219 | 1.0 | 0.0 | 0.00 | 0.00 | 0.00 | 75 | 1008.2 |
| 20260831035517 | 86 | 234 | 1.0 | 0.0 | 0.00 | 0.00 | 0.00 | 75 | 1008.2 |
| 20260831035351 | 86 | 198 | 1.0 | 0.0 | 0.00 | 0.00 | 0.00 | 75 | 1008.2 |
| 20260831035312 | 86 | 224 | 2.0 | 0.0 | 0.00 | 0.00 | 0.00 | 75 | 1008.2 |
| 20260831035143 | 86 | 269 | 2.0 | 0.0 | 0.00 | 0.00 | 0.00 | 75 | 1008.2 |
| 20260831035057 | 86 | 191 | 2.0 | 0.0 | 0.00 | 0.00 | 0.00 | 75 | 1008.2 |
| 20260831035000 | 86 | 202 | 2.0 | 0.0 | 0.00 | 0.00 | 0.00 | 75 | 1008.0 |
| 20260831034851 | 87 | 136 | 2.0 | 0.0 | 0.00 | 0.00 | 0.00 | 75 | 1008.0 |
| 20260831034755 | 87 | 195 | 2.0 | 0.0 | 0.00 | 0.00 | 0.00 | 75 | 1008.0 |
| 20260831034651 | 87 | 181 | 2.0 | 0.0 | 0.00 | 0.00 | 0.00 | 75 | 1008.0 |
| 20260831034612 | 87 | 161 | 2.0 | 0.0 | 0.00 | 0.00 | 0.00 | 75 | 1008.0 |
| 20260831034443 | 87 | 139 | 2.0 | 0.0 | 0.00 | 0.00 | 0.00 | 75 | 1008.0 |
| 20260831034356 | 87 | 172 | 2.0 | 0.0 | 0.00 | 0.00 | 0.00 | 75 | 1008.0 |
| 20260831034257 | 87 | 144 | 2.0 | 0.0 | 0.00 | 0.00 | 0.00 | 74 | 1008.0 |
| 20260831034209 | 87 | 152 | 2.0 | 0.0 | 0.00 | 0.00 | 0.00 | 74 | 1008.0 |
| 20260831034108 | 87 | 207 | 2.0 | 0.0 | 0.00 | 0.00 | 0.00 | 74 | 1008.0 |
| 20260831033956 | 87 | 228 | 2.0 | 0.0 | 0.00 | 0.00 | 0.00 | 74 | 1008.0 |
| 20260831033908 | 87 | 203 | 2.0 | 0.0 | 0.00 | 0.00 | 0.00 | 74 | 1008.0 |
| 20260831033746 | 87 | 156 | 2.0 | 0.0 | 0.00 | 0.00 | 0.00 | 74 | 1008.0 |
| 20260831033712 | 87 | 175 | 2.0 | 0.0 | 0.00 | 0.00 | 0.00 | 74 | 1008.0 |
| 20260831033543 | 87 | 165 | 2.0 | 0.0 | 0.00 | 0.00 | 0.00 | 74 | 1007.7 |
| 20260831033458 | 87 | 194 | 2.0 | 0.0 | 0.00 | 0.00 | 0.00 | 74 | 1007.7 |
| 20260831033358 | 87 | 204 | 2.0 | 0.0 | 0.00 | 0.00 | 0.00 | 74 | 1007.7 |
| 20260831033253 | 87 | 169 | 2.0 | 0.0 | 0.00 | 0.00 | 0.00 | 74 | 1007.7 |
| 20260831033153 | 87 | 197 | 2.0 | 0.0 | 0.00 | 0.00 | 0.00 | 74 | 1007.7 |
| 20260831033049 | 87 | 209 | 2.0 | 0.0 | 0.00 | 0.00 | 0.00 | 74 | 1007.7 |
| 20260831033012 | 87 | 277 | 2.0 | 0.0 | 0.00 | 0.00 | 0.00 | 74 | 1007.7 |
| 20260831032845 | 87 | 228 | 2.0 | 0.0 | 0.00 | 0.00 | 0.00 | 74 | 1007.7 |
| 20260831032749 | 87 | 215 | 2.0 | 0.0 | 0.00 | 0.00 | 0.00 | 74 | 1007.7 |
| 20260831032704 | 87 | 171 | 2.0 | 0.0 | 0.00 | 0.00 | 0.00 | 73 | 1007.7 |
| 20260831032605 | 87 | 205 | 2.0 | 0.0 | 0.00 | 0.00 | 0.00 | 73 | 1007.7 |
| 20260831032457 | 87 | 178 | 2.0 | 0.0 | 0.00 | 0.00 | 0.00 | 73 | 1007.7 |
| 20260831032352 | 87 | 189 | 3.0 | 0.0 | 0.00 | 0.00 | 0.00 | 73 | 1007.7 |
| 20260831032258 | 87 | 187 | 3.0 | 0.0 | 0.00 | 0.00 | 0.00 | 73 | 1007.7 |
| 20260831032152 | 87 | 271 | 3.0 | 0.0 | 0.00 | 0.00 | 0.00 | 73 | 1007.7 |
| 20260831032111 | 87 | 201 | 3.0 | 0.0 | 0.00 | 0.00 | 0.00 | 73 | 1007.7 |
| 20260831032002 | 87 | 219 | 3.0 | 0.0 | 0.00 | 0.00 | 0.00 | 73 | 1007.6 |
| 20260831031845 | 87 | 202 | 3.0 | 0.0 | 0.00 | 0.00 | 0.00 | 73 | 1007.6 |
| 20260831031757 | 87 | 160 | 3.0 | 0.0 | 0.00 | 0.00 | 0.00 | 72 | 1007.6 |
| 20260831031658 | 87 | 242 | 3.0 | 0.0 | 0.00 | 0.00 | 0.00 | 72 | 1007.6 |
| 20260831031553 | 87 | 200 | 3.0 | 0.0 | 0.00 | 0.00 | 0.00 | 72 | 1007.6 |
| 20260831031455 | 87 | 153 | 3.0 | 0.0 | 0.00 | 0.00 | 0.00 | 72 | 1007.6 |
| 20260831031359 | 87 | 208 | 3.0 | 0.0 | 0.00 | 0.00 | 0.00 | 72 | 1007.6 |
| 20260831031251 | 87 | 161 | 3.0 | 0.0 | 0.00 | 0.00 | 0.00 | 72 | 1007.6 |
| 20260831031213 | 87 | 227 | 2.0 | 0.0 | 0.00 | 0.00 | 0.00 | 72 | 1007.6 |
| 20260831031045 | 87 | 114 | 2.0 | 0.0 | 0.00 | 0.00 | 0.00 | 72 | 1007.6 |
| 20260831030957 | 87 | 215 | 2.0 | 0.0 | 0.00 | 0.00 | 0.00 | 72 | 1007.6 |
| 20260831030843 | 88 | 150 | 2.0 | 0.0 | 0.00 | 0.00 | 0.00 | 72 | 1007.6 |
| 20260831030754 | 88 | 182 | 2.0 | 0.0 | 0.00 | 0.00 | 0.00 | 72 | 1007.6 |
| 20260831030656 | 88 | 84 | 2.0 | 0.0 | 0.00 | 0.00 | 0.00 | 72 | 1007.6 |
| 20260831030549 | 88 | 197 | 2.0 | 0.0 | 0.00 | 0.00 | 0.00 | 72 | 1007.6 |